Observation data for Hobbs on 11/18/2019      Previous  Date  Next       Current Mesonet Observations  Soil Data  Daily Summary Page  Observations in Plain Language
KHO1 180600Z 20002KT 05/M01 A3012 RMK A01 T00471006  RH  068%=      5-min Rain = 0
KHO1 180601Z 20002KT 05/M01 A3012 RMK A01 T00471006  RH  069%=      5-min Rain = 0
KHO1 180602Z 20002KT 05/M01 A3012 RMK A01 T00461006  RH  069%=      5-min Rain = 0
KHO1 180603Z 20002KT 05/M01 A3012 RMK A01 T00461006  RH  069%=      5-min Rain = 0
KHO1 180604Z 20002KT 05/M01 A3012 RMK A01 T00451007  RH  069%=      5-min Rain = 0
KHO1 180605Z 21002KT 05/M01 A3012 RMK A01 T00451007  RH  069%=      5-min Rain = 0
KHO1 180606Z 21002KT 04/M01 A3012 RMK A01 T00441007  RH  069%=      5-min Rain = 0
KHO1 180607Z 21002KT 04/M01 A3012 RMK A01 T00441007  RH  070%=      5-min Rain = 0
KHO1 180608Z 20002KT 04/M01 A3012 RMK A01 T00441007  RH  070%=      5-min Rain = 0
KHO1 180609Z 20002KT 04/M01 A3012 RMK A01 T00431007  RH  070%=      5-min Rain = 0
KHO1 180610Z 20002KT 04/M01 A3012 RMK A01 T00431007  RH  070%=      5-min Rain = 0
KHO1 180611Z 19002KT 04/M01 A3012 RMK A01 T00431007  RH  070%=      5-min Rain = 0
KHO1 180612Z 19002KT 04/M01 A3012 RMK A01 T00421007  RH  070%=      5-min Rain = 0
KHO1 180613Z 19002KT 04/M01 A3012 RMK A01 T00421006  RH  071%=      5-min Rain = 0
KHO1 180614Z 19002KT 04/M01 A3012 RMK A01 T00421006  RH  071%=      5-min Rain = 0
KHO1 180615Z 19002KT 04/M01 A3012 RMK A01 T00421005  RH  071%=      5-min Rain = 0
KHO1 180616Z 19002KT 04/M00 A3012 RMK A01 T00431004  RH  072%=      5-min Rain = 0
KHO1 180617Z 19002KT 04/M00 A3011 RMK A01 T00431004  RH  071%=      5-min Rain = 0
KHO1 180618Z 20002KT 04/M00 A3011 RMK A01 T00431004  RH  071%=      5-min Rain = 0
KHO1 180619Z 20002KT 04/M00 A3011 RMK A01 T00431004  RH  071%=      5-min Rain = 0
KHO1 180620Z 20002KT 04/M00 A3011 RMK A01 T00441004  RH  071%=      5-min Rain = 0
KHO1 180621Z 21002KT 04/M00 A3011 RMK A01 T00441003  RH  071%=      5-min Rain = 0
KHO1 180622Z 21003KT 04/M00 A3011 RMK A01 T00441003  RH  071%=      5-min Rain = 0
KHO1 180623Z 21003KT 05/M00 A3011 RMK A01 T00451003  RH  071%=      5-min Rain = 0
KHO1 180624Z 21003KT 05/M00 A3011 RMK A01 T00451004  RH  071%=      5-min Rain = 0
KHO1 180625Z 21002KT 05/M00 A3011 RMK A01 T00451004  RH  071%=      5-min Rain = 0
KHO1 180626Z 21002KT 05/M00 A3011 RMK A01 T00451004  RH  071%=      5-min Rain = 0
KHO1 180627Z 21002KT 05/M00 A3011 RMK A01 T00451004  RH  071%=      5-min Rain = 0
KHO1 180628Z 21002KT 04/M01 A3011 RMK A01 T00441005  RH  070%=      5-min Rain = 0
KHO1 180629Z 21002KT 04/M01 A3011 RMK A01 T00441005  RH  070%=      5-min Rain = 0
KHO1 180630Z 21002KT 04/M01 A3011 RMK A01 T00441005  RH  071%=      5-min Rain = 0
KHO1 180631Z 21002KT 04/M01 A301 RMK A01 T00441005  RH  071%=      5-min Rain = 0
KHO1 180632Z 21002KT 04/M01 A301 RMK A01 T00431005  RH  071%=      5-min Rain = 0
KHO1 180633Z 21002KT 04/M01 A301 RMK A01 T00431005  RH  071%=      5-min Rain = 0
KHO1 180634Z 21003KT 04/M01 A301 RMK A01 T00431005  RH  071%=      5-min Rain = 0
KHO1 180635Z 21003KT 04/M00 A301 RMK A01 T00441004  RH  071%=      5-min Rain = 0
KHO1 180636Z 23003KT 04/M00 A301 RMK A01 T00441004  RH  071%=      5-min Rain = 0
KHO1 180637Z 23003KT 05/M00 A301 RMK A01 T00451003  RH  071%=      5-min Rain = 0
KHO1 180638Z 23003KT 05/M00 A301 RMK A01 T00451003  RH  071%=      5-min Rain = 0
KHO1 180639Z 23003KT 05/M00 A301 RMK A01 T00451002  RH  071%=      5-min Rain = 0
KHO1 180640Z 22002KT 05/M00 A301 RMK A01 T00461002  RH  071%=      5-min Rain = 0
KHO1 180641Z 22002KT 05/M00 A301 RMK A01 T00461002  RH  071%=      5-min Rain = 0
KHO1 180642Z 22002KT 05/M00 A301 RMK A01 T00461002  RH  071%=      5-min Rain = 0
KHO1 180643Z 22002KT 05/M00 A301 RMK A01 T00461002  RH  071%=      5-min Rain = 0
KHO1 180644Z 22002KT 05/M00 A301 RMK A01 T00461002  RH  071%=      5-min Rain = 0
KHO1 180645Z 22002KT 05/M00 A301 RMK A01 T00461003  RH  071%=      5-min Rain = 0
KHO1 180646Z 22002KT 05/M00 A301 RMK A01 T00461003  RH  071%=      5-min Rain = 0
KHO1 180647Z 22002KT 05/M00 A301 RMK A01 T00451003  RH  071%=      5-min Rain = 0
KHO1 180648Z 22002KT 05/M00 A301 RMK A01 T00451003  RH  071%=      5-min Rain = 0
KHO1 180649Z 22002KT 04/M00 A301 RMK A01 T00441004  RH  071%=      5-min Rain = 0
KHO1 180650Z 22002KT 04/M00 A301 RMK A01 T00441004  RH  071%=      5-min Rain = 0
KHO1 180651Z 22002KT 04/M00 A301 RMK A01 T00441004  RH  071%=      5-min Rain = 0
KHO1 180652Z 22002KT 04/M01 A3009 RMK A01 T00441005  RH  071%=      5-min Rain = 0
KHO1 180653Z 22003KT 04/M01 A3009 RMK A01 T00431005  RH  071%=      5-min Rain = 0
KHO1 180654Z 22003KT 04/M01 A3009 RMK A01 T00431005  RH  071%=      5-min Rain = 0
KHO1 180655Z 22003KT 04/M01 A3009 RMK A01 T00431005  RH  071%=      5-min Rain = 0
KHO1 180656Z 22003KT 04/M01 A3009 RMK A01 T00431005  RH  071%=      5-min Rain = 0
KHO1 180657Z 22003KT 04/M01 A3009 RMK A01 T00431006  RH  070%=      5-min Rain = 0
KHO1 180658Z 22003KT 04/M01 A3009 RMK A01 T00431006  RH  070%=      5-min Rain = 0
KHO1 180659Z 22003KT 04/M01 A3009 RMK A01 T00431007  RH  070%=      5-min Rain = 0
KHO1 180700Z 22002KT 04/M01 A3009 RMK A01 T00421007  RH  070%=      5-min Rain = 0
KHO1 180701Z 22002KT 04/M01 A3009 RMK A01 T00421007  RH  071%=      5-min Rain = 0
KHO1 180702Z 22002KT 04/M01 A3009 RMK A01 T00411007  RH  071%=      5-min Rain = 0
KHO1 180703Z 22002KT 04/M01 A3009 RMK A01 T00411007  RH  071%=      5-min Rain = 0
KHO1 180704Z 23002KT 04/M01 A3009 RMK A01 T00411006  RH  071%=      5-min Rain = 0
KHO1 180705Z 23002KT 04/M01 A3009 RMK A01 T00411005  RH  072%=      5-min Rain = 0
KHO1 180706Z 23002KT 04/M01 A3009 RMK A01 T00411005  RH  072%=      5-min Rain = 0
KHO1 180707Z 23002KT 04/M01 A3009 RMK A01 T00421005  RH  072%=      5-min Rain = 0
KHO1 180708Z 23003KT 04/M01 A3009 RMK A01 T00421005  RH  072%=      5-min Rain = 0
KHO1 180709Z 23003KT 04/M01 A3009 RMK A01 T00421005  RH  071%=      5-min Rain = 0
KHO1 180710Z 23003KT 04/M01 A3009 RMK A01 T00411005  RH  072%=      5-min Rain = 0
KHO1 180711Z 22003KT 04/M01 A3009 RMK A01 T00421005  RH  072%=      5-min Rain = 0
KHO1 180712Z 22004KT 04/M01 A3009 RMK A01 T00421005  RH  071%=      5-min Rain = 0
KHO1 180713Z 23003KT 04/M01 A3009 RMK A01 T00421006  RH  071%=      5-min Rain = 0
KHO1 180714Z 22003KT 04/M01 A3009 RMK A01 T00421006  RH  071%=      5-min Rain = 0
KHO1 180715Z 22004KT 04/M01 A3009 RMK A01 T00421006  RH  071%=      5-min Rain = 0
KHO1 180716Z 23004KT 04/M01 A3009 RMK A01 T00421007  RH  070%=      5-min Rain = 0
KHO1 180717Z 23004KT 04/M01 A3009 RMK A01 T00431007  RH  070%=      5-min Rain = 0
KHO1 180718Z 23004KT 04/M01 A3009 RMK A01 T00431007  RH  070%=      5-min Rain = 0
KHO1 180719Z 23004KT 04/M01 A3009 RMK A01 T00431007  RH  070%=      5-min Rain = 0
KHO1 180720Z 23004KT 04/M01 A3009 RMK A01 T00421007  RH  071%=      5-min Rain = 0
KHO1 180721Z 23004KT 04/M01 A3009 RMK A01 T00421007  RH  071%=      5-min Rain = 0
KHO1 180722Z 24004KT 04/M01 A3009 RMK A01 T00411007  RH  071%=      5-min Rain = 0
KHO1 180723Z 24004KT 04/M01 A3009 RMK A01 T00411007  RH  071%=      5-min Rain = 0
KHO1 180724Z 24005KT 04/M01 A3009 RMK A01 T00401008  RH  071%=      5-min Rain = 0
KHO1 180725Z 25004KT 04/M01 A3009 RMK A01 T00401007  RH  071%=      5-min Rain = 0
KHO1 180726Z 25004KT 04/M01 A3009 RMK A01 T00401007  RH  071%=      5-min Rain = 0
KHO1 180727Z 25004KT 04/M01 A3009 RMK A01 T00401008  RH  071%=      5-min Rain = 0
KHO1 180728Z 25004KT 04/M01 A3009 RMK A01 T00391008  RH  071%=      5-min Rain = 0
KHO1 180729Z 25004KT 04/M01 A3009 RMK A01 T00391008  RH  071%=      5-min Rain = 0
KHO1 180730Z 25004KT 04/M01 A3009 RMK A01 T00391008  RH  071%=      5-min Rain = 0
KHO1 180731Z 24004KT 04/M01 A3009 RMK A01 T00381009  RH  072%=      5-min Rain = 0
KHO1 180732Z 25004KT 04/M01 A3009 RMK A01 T00381009  RH  072%=      5-min Rain = 0
KHO1 180733Z 25004KT 04/M01 A3009 RMK A01 T00371009  RH  072%=      5-min Rain = 0
KHO1 180734Z 25004KT 04/M01 A3009 RMK A01 T00361009  RH  072%=      5-min Rain = 0
KHO1 180735Z 25004KT 04/M01 A3009 RMK A01 T00361009  RH  072%=      5-min Rain = 0
KHO1 180736Z 24005KT 04/M01 A3009 RMK A01 T00361009  RH  072%=      5-min Rain = 0
KHO1 180737Z 24005KT 04/M01 A3009 RMK A01 T00361009  RH  072%=      5-min Rain = 0
KHO1 180738Z 24005KT 04/M01 A3009 RMK A01 T00361009  RH  072%=      5-min Rain = 0
KHO1 180739Z 23005KT 04/M01 A3009 RMK A01 T00361009  RH  072%=      5-min Rain = 0
KHO1 180740Z 23005KT 04/M01 A3009 RMK A01 T00351009  RH  072%=      5-min Rain = 0
KHO1 180741Z 23005KT 04/M01 A3009 RMK A01 T00351009  RH  073%=      5-min Rain = 0
KHO1 180742Z 23005KT 04/M01 A3009 RMK A01 T00361009  RH  073%=      5-min Rain = 0
KHO1 180743Z 23006KT 04/M01 A3009 RMK A01 T00361009  RH  073%=      5-min Rain = 0
KHO1 180744Z 22005KT 04/M01 A3009 RMK A01 T00351009  RH  073%=      5-min Rain = 0
KHO1 180745Z 22005KT 04/M01 A3008 RMK A01 T00351008  RH  073%=      5-min Rain = 0
KHO1 180746Z 22005KT 04/M01 A3008 RMK A01 T00351008  RH  073%=      5-min Rain = 0
KHO1 180747Z 22005KT 04/M01 A3008 RMK A01 T00361007  RH  073%=      5-min Rain = 0
KHO1 180748Z 23005KT 04/M01 A3008 RMK A01 T00361007  RH  073%=      5-min Rain = 0
KHO1 180749Z 23005KT 04/M01 A3008 RMK A01 T00351008  RH  073%=      5-min Rain = 0
KHO1 180750Z 23005KT 04/M01 A3008 RMK A01 T00351008  RH  073%=      5-min Rain = 0
KHO1 180751Z 23005KT 04/M01 A3008 RMK A01 T00351008  RH  074%=      5-min Rain = 0
KHO1 180752Z 23006KT 03/M01 A3008 RMK A01 T00341008  RH  074%=      5-min Rain = 0
KHO1 180753Z 24006KT 03/M01 A3008 RMK A01 T00341008  RH  074%=      5-min Rain = 0
KHO1 180754Z 24006KT 03/M01 A3008 RMK A01 T00331008  RH  074%=      5-min Rain = 0
KHO1 180755Z 24006KT 03/M01 A3008 RMK A01 T00331008  RH  075%=      5-min Rain = 0
KHO1 180756Z 24006KT 03/M01 A3008 RMK A01 T00321008  RH  075%=      5-min Rain = 0
KHO1 180757Z 24006KT 03/M01 A3008 RMK A01 T00321008  RH  075%=      5-min Rain = 0
KHO1 180758Z 24006KT 03/M01 A3008 RMK A01 T00321008  RH  075%=      5-min Rain = 0
KHO1 180759Z 25006KT 03/M01 A3008 RMK A01 T00311009  RH  075%=      5-min Rain = 0
KHO1 180800Z 24006KT 03/M01 A3008 RMK A01 T00311009  RH  075%=      5-min Rain = 0
KHO1 180801Z 24005KT 03/M01 A3008 RMK A01 T00311009  RH  075%=      5-min Rain = 0
KHO1 180802Z 24006KT 03/M01 A3008 RMK A01 T00311009  RH  075%=      5-min Rain = 0
KHO1 180803Z 24006KT 03/M01 A3008 RMK A01 T00311009  RH  075%=      5-min Rain = 0
KHO1 180804Z 24006KT 03/M01 A3008 RMK A01 T00301009  RH  075%=      5-min Rain = 0
KHO1 180805Z 24005KT 03/M01 A3008 RMK A01 T00301009  RH  075%=      5-min Rain = 0
KHO1 180806Z 24005KT 03/M01 A3008 RMK A01 T00301009  RH  076%=      5-min Rain = 0
KHO1 180807Z 24005KT 03/M01 A3008 RMK A01 T00311008  RH  076%=      5-min Rain = 0
KHO1 180808Z 24005KT 03/M01 A3008 RMK A01 T00311008  RH  075%=      5-min Rain = 0
KHO1 180809Z 24005KT 03/M01 A3008 RMK A01 T00311008  RH  075%=      5-min Rain = 0
KHO1 180810Z 24005KT 03/M01 A3008 RMK A01 T00311008  RH  075%=      5-min Rain = 0
KHO1 180811Z 24005KT 03/M01 A3008 RMK A01 T00311009  RH  075%=      5-min Rain = 0
KHO1 180812Z 23005KT 03/M01 A3008 RMK A01 T00311009  RH  075%=      5-min Rain = 0
KHO1 180813Z 23006KT 03/M01 A3008 RMK A01 T00311008  RH  075%=      5-min Rain = 0
KHO1 180814Z 23005KT 03/M01 A3008 RMK A01 T00311009  RH  075%=      5-min Rain = 0
KHO1 180815Z 24005KT 03/M01 A3008 RMK A01 T00311008  RH  075%=      5-min Rain = 0
KHO1 180816Z 24005KT 03/M01 A3008 RMK A01 T00321008  RH  075%=      5-min Rain = 0
KHO1 180817Z 25006KT 03/M01 A3008 RMK A01 T00311009  RH  075%=      5-min Rain = 0
KHO1 180818Z 25006KT 03/M01 A3008 RMK A01 T00311009  RH  075%=      5-min Rain = 0
KHO1 180819Z 25006KT 03/M01 A3008 RMK A01 T00311009  RH  075%=      5-min Rain = 0
KHO1 180820Z 25006KT 03/M01 A3008 RMK A01 T00311009  RH  075%=      5-min Rain = 0
KHO1 180821Z 25006KT 03/M01 A3008 RMK A01 T00301010  RH  075%=      5-min Rain = 0
KHO1 180822Z 24006KT 03/M01 A3008 RMK A01 T00301010  RH  075%=      5-min Rain = 0
KHO1 180823Z 24006KT 03/M01 A3008 RMK A01 T00291010  RH  076%=      5-min Rain = 0
KHO1 180824Z 24006KT 03/M01 A3008 RMK A01 T00291010  RH  076%=      5-min Rain = 0
KHO1 180825Z 24006KT 03/M01 A3008 RMK A01 T00291009  RH  076%=      5-min Rain = 0
KHO1 180826Z 23006KT 03/M01 A3008 RMK A01 T00301008  RH  076%=      5-min Rain = 0
KHO1 180827Z 23006KT 03/M01 A3008 RMK A01 T00301008  RH  076%=      5-min Rain = 0
KHO1 180828Z 23006KT 03/M01 A3008 RMK A01 T00311008  RH  076%=      5-min Rain = 0
KHO1 180829Z 23007KT 03/M01 A3008 RMK A01 T00311008  RH  076%=      5-min Rain = 0
KHO1 180830Z 24007KT 03/M01 A3008 RMK A01 T00311008  RH  075%=      5-min Rain = 0
KHO1 180831Z 24006KT 03/M01 A3008 RMK A01 T00301009  RH  075%=      5-min Rain = 0
KHO1 180832Z 24006KT 03/M01 A3008 RMK A01 T00291010  RH  076%=      5-min Rain = 0
KHO1 180833Z 24006KT 03/M01 A3008 RMK A01 T00291010  RH  076%=      5-min Rain = 0
KHO1 180834Z 24006KT 03/M01 A3007 RMK A01 T00281010  RH  076%=      5-min Rain = 0
KHO1 180835Z 24006KT 03/M01 A3007 RMK A01 T00281009  RH  076%=      5-min Rain = 0
KHO1 180836Z 24006KT 03/M01 A3007 RMK A01 T00281009  RH  077%=      5-min Rain = 0
KHO1 180837Z 25006KT 03/M01 A3007 RMK A01 T00271009  RH  077%=      5-min Rain = 0
KHO1 180838Z 24006KT 03/M01 A3007 RMK A01 T00271010  RH  077%=      5-min Rain = 0
KHO1 180839Z 24006KT 03/M01 A3007 RMK A01 T00271010  RH  077%=      5-min Rain = 0
KHO1 180840Z 24006KT 03/M01 A3007 RMK A01 T00261010  RH  077%=      5-min Rain = 0
KHO1 180841Z 24006KT 03/M01 A3007 RMK A01 T00261009  RH  077%=      5-min Rain = 0
KHO1 180842Z 24005KT 03/M01 A3007 RMK A01 T00261009  RH  077%=      5-min Rain = 0
KHO1 180843Z 24005KT 03/M01 A3007 RMK A01 T00271009  RH  077%=      5-min Rain = 0
KHO1 180844Z 24005KT 03/M01 A3007 RMK A01 T00271008  RH  077%=      5-min Rain = 0
KHO1 180845Z 24005KT 03/M01 A3007 RMK A01 T00281008  RH  077%=      5-min Rain = 0
KHO1 180846Z 24005KT 03/M01 A3007 RMK A01 T00281008  RH  077%=      5-min Rain = 0
KHO1 180847Z 24006KT 03/M01 A3007 RMK A01 T00281008  RH  077%=      5-min Rain = 0
KHO1 180848Z 24006KT 03/M01 A3007 RMK A01 T00281008  RH  077%=      5-min Rain = 0
KHO1 180849Z 24006KT 03/M01 A3007 RMK A01 T00281009  RH  077%=      5-min Rain = 0
KHO1 180850Z 24006KT 03/M01 A3007 RMK A01 T00271009  RH  077%=      5-min Rain = 0
KHO1 180851Z 23006KT 03/M01 A3007 RMK A01 T00271008  RH  077%=      5-min Rain = 0
KHO1 180852Z 23006KT 03/M01 A3006 RMK A01 T00281007  RH  078%=      5-min Rain = 0
KHO1 180853Z 23006KT 03/M01 A3006 RMK A01 T00291007  RH  077%=      5-min Rain = 0
KHO1 180854Z 23006KT 03/M01 A3006 RMK A01 T00291007  RH  077%=      5-min Rain = 0
KHO1 180855Z 23006KT 03/M01 A3006 RMK A01 T00301007  RH  077%=      5-min Rain = 0
KHO1 180856Z 23007KT 03/M01 A3006 RMK A01 T00291007  RH  077%=      5-min Rain = 0
KHO1 180857Z 24007KT 03/M01 A3006 RMK A01 T00301007  RH  077%=      5-min Rain = 0
KHO1 180858Z 24006KT 03/M01 A3006 RMK A01 T00291008  RH  077%=      5-min Rain = 0
KHO1 180859Z 24006KT 03/M01 A3006 RMK A01 T00291008  RH  077%=      5-min Rain = 0
KHO1 180900Z 23006KT 03/M01 A3006 RMK A01 T00291008  RH  077%=      5-min Rain = 0
KHO1 180901Z 23006KT 03/M01 A3006 RMK A01 T00301007  RH  077%=      5-min Rain = 0
KHO1 180902Z 23006KT 03/M01 A3006 RMK A01 T00301006  RH  077%=      5-min Rain = 0
KHO1 180903Z 23006KT 03/M01 A3006 RMK A01 T00311006  RH  077%=      5-min Rain = 0
KHO1 180904Z 23006KT 03/M01 A3006 RMK A01 T00311006  RH  076%=      5-min Rain = 0
KHO1 180905Z 23006KT 03/M01 A3006 RMK A01 T00321006  RH  076%=      5-min Rain = 0
KHO1 180906Z 23006KT 03/M01 A3006 RMK A01 T00321006  RH  076%=      5-min Rain = 0
KHO1 180907Z 23006KT 03/M01 A3006 RMK A01 T00321006  RH  076%=      5-min Rain = 0
KHO1 180908Z 22006KT 03/M01 A3006 RMK A01 T00331005  RH  076%=      5-min Rain = 0
KHO1 180909Z 22006KT 03/M01 A3006 RMK A01 T00341005  RH  076%=      5-min Rain = 0
KHO1 180910Z 22006KT 03/M00 A3006 RMK A01 T00341004  RH  076%=      5-min Rain = 0
KHO1 180911Z 23006KT 04/M01 A3006 RMK A01 T00351005  RH  075%=      5-min Rain = 0
KHO1 180912Z 23006KT 04/M01 A3006 RMK A01 T00351005  RH  075%=      5-min Rain = 0
KHO1 180913Z 23006KT 03/M01 A3006 RMK A01 T00341006  RH  075%=      5-min Rain = 0
KHO1 180914Z 23006KT 03/M01 A3006 RMK A01 T00341007  RH  075%=      5-min Rain = 0
KHO1 180915Z 23007KT 03/M01 A3006 RMK A01 T00331008  RH  075%=      5-min Rain = 0
KHO1 180916Z 23007KT 03/M01 A3006 RMK A01 T00321008  RH  075%=      5-min Rain = 0
KHO1 180917Z 23007KT 03/M01 A3006 RMK A01 T00311009  RH  075%=      5-min Rain = 0
KHO1 180918Z 23007KT 03/M01 A3006 RMK A01 T00301009  RH  076%=      5-min Rain = 0
KHO1 180919Z 23007KT 03/M01 A3006 RMK A01 T00291008  RH  076%=      5-min Rain = 0
KHO1 180920Z 24007KT 03/M01 A3006 RMK A01 T00291008  RH  076%=      5-min Rain = 0
KHO1 180921Z 24006KT 03/M01 A3006 RMK A01 T00291009  RH  077%=      5-min Rain = 0
KHO1 180922Z 24006KT 03/M01 A3006 RMK A01 T00281009  RH  077%=      5-min Rain = 0
KHO1 180923Z 24006KT 03/M01 A3006 RMK A01 T00271009  RH  077%=      5-min Rain = 0
KHO1 180924Z 24006KT 03/M01 A3006 RMK A01 T00271010  RH  077%=      5-min Rain = 0
KHO1 180925Z 24007KT 03/M01 A3006 RMK A01 T00261009  RH  077%=      5-min Rain = 0
KHO1 180926Z 23007KT 03/M01 A3006 RMK A01 T00261009  RH  078%=      5-min Rain = 0
KHO1 180927Z 23007KT 03/M01 A3006 RMK A01 T00271007  RH  078%=      5-min Rain = 0
KHO1 180928Z 23007KT 03/M01 A3005 RMK A01 T00291007  RH  078%=      5-min Rain = 0
KHO1 180929Z 23007KT 03/M01 A3005 RMK A01 T00291006  RH  077%=      5-min Rain = 0
KHO1 180930Z 23007KT 03/M01 A3005 RMK A01 T00301006  RH  077%=      5-min Rain = 0
KHO1 180931Z 23007KT 03/M01 A3005 RMK A01 T00311006  RH  077%=      5-min Rain = 0
KHO1 180932Z 23007KT 03/M01 A3005 RMK A01 T00321006  RH  076%=      5-min Rain = 0
KHO1 180933Z 24006KT 03/M01 A3005 RMK A01 T00321007  RH  076%=      5-min Rain = 0
KHO1 180934Z 24006KT 03/M01 A3005 RMK A01 T00311008  RH  076%=      5-min Rain = 0
KHO1 180935Z 24006KT 03/M01 A3005 RMK A01 T00311008  RH  076%=      5-min Rain = 0
KHO1 180936Z 23006KT 03/M01 A3005 RMK A01 T00301009  RH  076%=      5-min Rain = 0
KHO1 180937Z 23006KT 03/M01 A3005 RMK A01 T00291009  RH  076%=      5-min Rain = 0
KHO1 180938Z 23006KT 03/M01 A3005 RMK A01 T00291009  RH  076%=      5-min Rain = 0
KHO1 180939Z 23006KT 03/M01 A3005 RMK A01 T00291009  RH  076%=      5-min Rain = 0
KHO1 180940Z 23006KT 03/M01 A3005 RMK A01 T00291008  RH  077%=      5-min Rain = 0
KHO1 180941Z 22006KT 03/M01 A3005 RMK A01 T00291008  RH  076%=      5-min Rain = 0
KHO1 180942Z 22006KT 03/M01 A3005 RMK A01 T00291008  RH  076%=      5-min Rain = 0
KHO1 180943Z 22005KT 03/M01 A3005 RMK A01 T00301008  RH  076%=      5-min Rain = 0
KHO1 180944Z 22005KT 03/M01 A3005 RMK A01 T00301008  RH  076%=      5-min Rain = 0
KHO1 180945Z 23005KT 03/M01 A3005 RMK A01 T00291009  RH  076%=      5-min Rain = 0
KHO1 180946Z 23005KT 03/M01 A3005 RMK A01 T00291009  RH  076%=      5-min Rain = 0
KHO1 180947Z 22005KT 03/M01 A3005 RMK A01 T00291008  RH  076%=      5-min Rain = 0
KHO1 180948Z 21005KT 03/M01 A3005 RMK A01 T00301008  RH  076%=      5-min Rain = 0
KHO1 180949Z 21005KT 03/M01 A3005 RMK A01 T00301009  RH  076%=      5-min Rain = 0
KHO1 180950Z 21005KT 03/M01 A3005 RMK A01 T00291009  RH  076%=      5-min Rain = 0
KHO1 180951Z 22004KT 03/M01 A3005 RMK A01 T00301008  RH  076%=      5-min Rain = 0
KHO1 180952Z 22004KT 03/M01 A3005 RMK A01 T00301008  RH  076%=      5-min Rain = 0
KHO1 180953Z 22004KT 03/M01 A3005 RMK A01 T00301008  RH  076%=      5-min Rain = 0
KHO1 180954Z 22004KT 03/M01 A3005 RMK A01 T00301008  RH  076%=      5-min Rain = 0
KHO1 180955Z 22004KT 03/M01 A3005 RMK A01 T00301008  RH  076%=      5-min Rain = 0
KHO1 180956Z 21004KT 03/M01 A3004 RMK A01 T00301008  RH  076%=      5-min Rain = 0
KHO1 180957Z 22004KT 03/M01 A3004 RMK A01 T00301008  RH  076%=      5-min Rain = 0
KHO1 180958Z 22003KT 03/M01 A3005 RMK A01 T00311008  RH  076%=      5-min Rain = 0
KHO1 180959Z 23003KT 03/M01 A3005 RMK A01 T00301008  RH  076%=      5-min Rain = 0
KHO1 181000Z 24003KT 03/M01 A3005 RMK A01 T00301009  RH  076%=      5-min Rain = 0
KHO1 181001Z 24003KT 03/M01 A3005 RMK A01 T00301009  RH  076%=      5-min Rain = 0
KHO1 181002Z 24004KT 03/M01 A3005 RMK A01 T00301009  RH  076%=      5-min Rain = 0
KHO1 181003Z 24005KT 03/M01 A3005 RMK A01 T00301009  RH  076%=      5-min Rain = 0
KHO1 181004Z 23006KT 03/M01 A3005 RMK A01 T00301009  RH  075%=      5-min Rain = 0
KHO1 181005Z 23007KT 03/M01 A3004 RMK A01 T00291010  RH  076%=      5-min Rain = 0
KHO1 181006Z 22007KT 03/M01 A3004 RMK A01 T00291010  RH  076%=      5-min Rain = 0
KHO1 181007Z 23007KT 03/M01 A3005 RMK A01 T00281010  RH  076%=      5-min Rain = 0
KHO1 181008Z 25007KT 03/M01 A3005 RMK A01 T00281009  RH  077%=      5-min Rain = 0
KHO1 181009Z 27006KT 03/M01 A3005 RMK A01 T00291008  RH  077%=      5-min Rain = 0
KHO1 181010Z 27005KT 03/M01 A3005 RMK A01 T00291007  RH  077%=      5-min Rain = 0
KHO1 181011Z 26005KT 03/M01 A3005 RMK A01 T00301007  RH  077%=      5-min Rain = 0
KHO1 181012Z 26005KT 03/M01 A3005 RMK A01 T00301008  RH  076%=      5-min Rain = 0
KHO1 181013Z 26006KT 03/M01 A3005 RMK A01 T00301008  RH  076%=      5-min Rain = 0
KHO1 181014Z 25006KT 03/M01 A3005 RMK A01 T00301008  RH  076%=      5-min Rain = 0
KHO1 181015Z 24006KT 03/M01 A3005 RMK A01 T00301008  RH  076%=      5-min Rain = 0
KHO1 181016Z 25006KT 03/M01 A3005 RMK A01 T00301008  RH  076%=      5-min Rain = 0
KHO1 181017Z 24006KT 03/M01 A3005 RMK A01 T00291008  RH  076%=      5-min Rain = 0
KHO1 181018Z 24006KT 03/M01 A3005 RMK A01 T00291009  RH  076%=      5-min Rain = 0
KHO1 181019Z 24006KT 03/M01 A3005 RMK A01 T00281010  RH  076%=      5-min Rain = 0
KHO1 181020Z 24006KT 03/M01 A3005 RMK A01 T00271010  RH  077%=      5-min Rain = 0
KHO1 181021Z 24006KT 03/M01 A3005 RMK A01 T00261010  RH  077%=      5-min Rain = 0
KHO1 181022Z 24006KT 03/M01 A3005 RMK A01 T00251010  RH  077%=      5-min Rain = 0
KHO1 181023Z 24006KT 03/M01 A3005 RMK A01 T00251010  RH  078%=      5-min Rain = 0
KHO1 181024Z 24006KT 03/M01 A3005 RMK A01 T00251010  RH  078%=      5-min Rain = 0
KHO1 181025Z 25006KT 03/M01 A3004 RMK A01 T00251010  RH  078%=      5-min Rain = 0
KHO1 181026Z 25006KT 03/M01 A3004 RMK A01 T00251010  RH  078%=      5-min Rain = 0
KHO1 181027Z 24006KT 02/M01 A3004 RMK A01 T00241010  RH  078%=      5-min Rain = 0
KHO1 181028Z 24006KT 02/M01 A3004 RMK A01 T00241010  RH  078%=      5-min Rain = 0
KHO1 181029Z 24006KT 02/M01 A3004 RMK A01 T00241010  RH  078%=      5-min Rain = 0
KHO1 181030Z 24005KT 02/M01 A3004 RMK A01 T00241010  RH  078%=      5-min Rain = 0
KHO1 181031Z 24006KT 02/M01 A3004 RMK A01 T00241010  RH  078%=      5-min Rain = 0
KHO1 181032Z 24006KT 02/M01 A3004 RMK A01 T00241010  RH  078%=      5-min Rain = 0
KHO1 181033Z 24006KT 02/M01 A3004 RMK A01 T00241010  RH  078%=      5-min Rain = 0
KHO1 181034Z 24006KT 02/M01 A3004 RMK A01 T00241010  RH  078%=      5-min Rain = 0
KHO1 181035Z 24006KT 02/M01 A3004 RMK A01 T00231010  RH  079%=      5-min Rain = 0
KHO1 181036Z 24006KT 02/M01 A3004 RMK A01 T00231010  RH  079%=      5-min Rain = 0
KHO1 181037Z 24006KT 02/M01 A3004 RMK A01 T00231010  RH  079%=      5-min Rain = 0
KHO1 181038Z 24006KT 02/M01 A3004 RMK A01 T00231010  RH  079%=      5-min Rain = 0
KHO1 181039Z 23007KT 02/M01 A3004 RMK A01 T00231009  RH  079%=      5-min Rain = 0
KHO1 181040Z 23007KT 02/M01 A3004 RMK A01 T00241008  RH  079%=      5-min Rain = 0
KHO1 181041Z 23007KT 02/M01 A3004 RMK A01 T00241008  RH  079%=      5-min Rain = 0
KHO1 181042Z 23007KT 03/M01 A3004 RMK A01 T00251008  RH  079%=      5-min Rain = 0
KHO1 181043Z 23007KT 03/M01 A3004 RMK A01 T00251008  RH  079%=      5-min Rain = 0
KHO1 181044Z 24007KT 03/M01 A3004 RMK A01 T00251008  RH  079%=      5-min Rain = 0
KHO1 181045Z 24007KT 03/M01 A3004 RMK A01 T00251008  RH  079%=      5-min Rain = 0
KHO1 181046Z 24007KT 03/M01 A3004 RMK A01 T00251008  RH  079%=      5-min Rain = 0
KHO1 181047Z 24007KT 03/M01 A3004 RMK A01 T00251009  RH  079%=      5-min Rain = 0
KHO1 181048Z 24007KT 03/M01 A3004 RMK A01 T00251008  RH  079%=      5-min Rain = 0
KHO1 181049Z 24007KT 03/M01 A3004 RMK A01 T00251008  RH  079%=      5-min Rain = 0
KHO1 181050Z 24007KT 03/M01 A3004 RMK A01 T00251009  RH  079%=      5-min Rain = 0
KHO1 181051Z 25007KT 02/M01 A3004 RMK A01 T00241009  RH  079%=      5-min Rain = 0
KHO1 181052Z 25007KT 02/M01 A3004 RMK A01 T00241009  RH  079%=      5-min Rain = 0
KHO1 181053Z 25007KT 02/M01 A3004 RMK A01 T00241008  RH  079%=      5-min Rain = 0
KHO1 181054Z 25006KT 03/M01 A3004 RMK A01 T00251008  RH  079%=      5-min Rain = 0
KHO1 181055Z 25007KT 03/M01 A3004 RMK A01 T00251008  RH  079%=      5-min Rain = 0
KHO1 181056Z 25007KT 03/M01 A3004 RMK A01 T00251008  RH  079%=      5-min Rain = 0
KHO1 181057Z 25007KT 03/M01 A3004 RMK A01 T00261007  RH  079%=      5-min Rain = 0
KHO1 181058Z 25007KT 03/M01 A3004 RMK A01 T00261007  RH  078%=      5-min Rain = 0
KHO1 181059Z 25007KT 03/M01 A3004 RMK A01 T00271008  RH  078%=      5-min Rain = 0
KHO1 181100Z 24007KT 03/M01 A3004 RMK A01 T00261008  RH  078%=      5-min Rain = 0
KHO1 181101Z 24007KT 03/M01 A3004 RMK A01 T00261009  RH  078%=      5-min Rain = 0
KHO1 181102Z 24007KT 03/M01 A3004 RMK A01 T00251009  RH  078%=      5-min Rain = 0
KHO1 181103Z 24007KT 03/M01 A3003 RMK A01 T00251009  RH  078%=      5-min Rain = 0
KHO1 181104Z 24007KT 02/M01 A3003 RMK A01 T00241009  RH  078%=      5-min Rain = 0
KHO1 181105Z 24007KT 02/M01 A3003 RMK A01 T00241009  RH  079%=      5-min Rain = 0
KHO1 181106Z 24007KT 02/M01 A3003 RMK A01 T00241009  RH  079%=      5-min Rain = 0
KHO1 181107Z 24007KT 02/M01 A3003 RMK A01 T00241009  RH  079%=      5-min Rain = 0
KHO1 181108Z 24007KT 02/M01 A3003 RMK A01 T00241010  RH  079%=      5-min Rain = 0
KHO1 181109Z 24007KT 02/M01 A3003 RMK A01 T00231010  RH  079%=      5-min Rain = 0
KHO1 181110Z 24007KT 02/M01 A3003 RMK A01 T00231010  RH  079%=      5-min Rain = 0
KHO1 181111Z 24007KT 02/M01 A3003 RMK A01 T00231009  RH  079%=      5-min Rain = 0
KHO1 181112Z 24007KT 02/M01 A3004 RMK A01 T00241008  RH  079%=      5-min Rain = 0
KHO1 181113Z 24007KT 03/M01 A3004 RMK A01 T00251008  RH  079%=      5-min Rain = 0
KHO1 181114Z 24007KT 03/M01 A3004 RMK A01 T00251009  RH  079%=      5-min Rain = 0
KHO1 181115Z 24007KT 02/M01 A3004 RMK A01 T00241009  RH  079%=      5-min Rain = 0
KHO1 181116Z 24007KT 02/M01 A3004 RMK A01 T00241009  RH  079%=      5-min Rain = 0
KHO1 181117Z 24007KT 02/M01 A3004 RMK A01 T00241009  RH  079%=      5-min Rain = 0
KHO1 181118Z 24007KT 02/M01 A3004 RMK A01 T00241009  RH  079%=      5-min Rain = 0
KHO1 181119Z 24007KT 02/M01 A3004 RMK A01 T00241009  RH  079%=      5-min Rain = 0
KHO1 181120Z 24007KT 02/M01 A3003 RMK A01 T00241009  RH  079%=      5-min Rain = 0
KHO1 181121Z 23007KT 02/M01 A3003 RMK A01 T00231009  RH  079%=      5-min Rain = 0
KHO1 181122Z 23007KT 02/M01 A3003 RMK A01 T00241008  RH  079%=      5-min Rain = 0
KHO1 181123Z 23007KT 03/M01 A3003 RMK A01 T00251007  RH  079%=      5-min Rain = 0
KHO1 181124Z 23008KT 03/M01 A3003 RMK A01 T00261006  RH  079%=      5-min Rain = 0
KHO1 181125Z 23008KT 03/M01 A3003 RMK A01 T00281005  RH  079%=      5-min Rain = 0
KHO1 181126Z 23008KT 03/M01 A3003 RMK A01 T00291006  RH  078%=      5-min Rain = 0
KHO1 181127Z 23008KT 03/M01 A3003 RMK A01 T00301005  RH  078%=      5-min Rain = 0
KHO1 181128Z 23008KT 03/M01 A3003 RMK A01 T00311005  RH  077%=      5-min Rain = 0
KHO1 181129Z 24008KT 03/M01 A3003 RMK A01 T00321005  RH  077%=      5-min Rain = 0
KHO1 181130Z 24008KT 03/M01 A3003 RMK A01 T00321006  RH  076%=      5-min Rain = 0
KHO1 181131Z 23007KT 03/M01 A3003 RMK A01 T00321006  RH  076%=      5-min Rain = 0
KHO1 181132Z 23007KT 03/M01 A3003 RMK A01 T00311006  RH  076%=      5-min Rain = 0
KHO1 181133Z 24007KT 03/M01 A3003 RMK A01 T00311006  RH  076%=      5-min Rain = 0
KHO1 181134Z 24006KT 03/M01 A3003 RMK A01 T00311007  RH  076%=      5-min Rain = 0
KHO1 181135Z 24007KT 03/M01 A3003 RMK A01 T00301007  RH  077%=      5-min Rain = 0
KHO1 181136Z 24007KT 03/M01 A3003 RMK A01 T00291007  RH  077%=      5-min Rain = 0
KHO1 181137Z 24007KT 03/M01 A3003 RMK A01 T00291007  RH  077%=      5-min Rain = 0
KHO1 181138Z 24007KT 03/M01 A3003 RMK A01 T00281007  RH  077%=      5-min Rain = 0
KHO1 181139Z 24007KT 03/M01 A3003 RMK A01 T00281007  RH  078%=      5-min Rain = 0
KHO1 181140Z 24007KT 03/M01 A3003 RMK A01 T00281007  RH  078%=      5-min Rain = 0
KHO1 181141Z 24007KT 03/M01 A3003 RMK A01 T00281007  RH  078%=      5-min Rain = 0
KHO1 181142Z 24006KT 03/M01 A3003 RMK A01 T00281007  RH  078%=      5-min Rain = 0
KHO1 181143Z 24006KT 03/M01 A3003 RMK A01 T00281006  RH  078%=      5-min Rain = 0
KHO1 181144Z 24007KT 03/M01 A3003 RMK A01 T00281006  RH  078%=      5-min Rain = 0
KHO1 181145Z 24007KT 03/M01 A3002 RMK A01 T00281005  RH  078%=      5-min Rain = 0
KHO1 181146Z 23007KT 03/M01 A3002 RMK A01 T00291005  RH  079%=      5-min Rain = 0
KHO1 181147Z 23007KT 03/M00 A3002 RMK A01 T00301004  RH  078%=      5-min Rain = 0
KHO1 181148Z 23007KT 03/M00 A3002 RMK A01 T00321003  RH  078%=      5-min Rain = 0
KHO1 181149Z 23007KT 03/M00 A3002 RMK A01 T00341003  RH  077%=      5-min Rain = 0
KHO1 181150Z 23006KT 04/M00 A3002 RMK A01 T00351002  RH  077%=      5-min Rain = 0
KHO1 181151Z 23007KT 04/M00 A3002 RMK A01 T00361002  RH  076%=      5-min Rain = 0
KHO1 181152Z 23007KT 04/M00 A3002 RMK A01 T00371002  RH  075%=      5-min Rain = 0
KHO1 181153Z 23006KT 04/M00 A3002 RMK A01 T00381002  RH  075%=      5-min Rain = 0
KHO1 181154Z 23007KT 04/M00 A3002 RMK A01 T00391002  RH  074%=      5-min Rain = 0
KHO1 181155Z 23007KT 04/M00 A3002 RMK A01 T00391003  RH  074%=      5-min Rain = 0
KHO1 181156Z 23007KT 04/M00 A3002 RMK A01 T00391003  RH  074%=      5-min Rain = 0
KHO1 181157Z 23007KT 04/M00 A3002 RMK A01 T00391004  RH  074%=      5-min Rain = 0
KHO1 181158Z 23007KT 04/M00 A3002 RMK A01 T00391004  RH  074%=      5-min Rain = 0
KHO1 181159Z 23007KT 04/M00 A3002 RMK A01 T00391004  RH  074%=      5-min Rain = 0
KHO1 181200Z 23006KT 04/M00 A3002 RMK A01 T00391004  RH  074%=      5-min Rain = 0
KHO1 181201Z 23006KT 04/M00 A3002 RMK A01 T00391004  RH  074%=      5-min Rain = 0
KHO1 181202Z 23006KT 04/M01 A3002 RMK A01 T00381005  RH  074%=      5-min Rain = 0
KHO1 181203Z 23006KT 04/M01 A3002 RMK A01 T00371005  RH  074%=      5-min Rain = 0
KHO1 181204Z 23006KT 04/M01 A3002 RMK A01 T00371005  RH  074%=      5-min Rain = 0
KHO1 181205Z 23007KT 04/M01 A3002 RMK A01 T00361005  RH  074%=      5-min Rain = 0
KHO1 181206Z 23006KT 04/M01 A3002 RMK A01 T00361005  RH  074%=      5-min Rain = 0
KHO1 181207Z 23006KT 04/M01 A3002 RMK A01 T00371005  RH  074%=      5-min Rain = 0
KHO1 181208Z 23006KT 04/M00 A3002 RMK A01 T00371004  RH  074%=      5-min Rain = 0
KHO1 181209Z 23006KT 04/M00 A3002 RMK A01 T00381004  RH  074%=      5-min Rain = 0
KHO1 181210Z 23006KT 04/M00 A3002 RMK A01 T00381004  RH  074%=      5-min Rain = 0
KHO1 181211Z 23006KT 04/M00 A3002 RMK A01 T00391004  RH  074%=      5-min Rain = 0
KHO1 181212Z 23006KT 04/M00 A3002 RMK A01 T00391004  RH  073%=      5-min Rain = 0
KHO1 181213Z 23006KT 04/M00 A3002 RMK A01 T00391004  RH  073%=      5-min Rain = 0
KHO1 181214Z 23006KT 04/M01 A3002 RMK A01 T00391005  RH  073%=      5-min Rain = 0
KHO1 181215Z 23006KT 04/M01 A3002 RMK A01 T00391005  RH  073%=      5-min Rain = 0
KHO1 181216Z 23006KT 04/M01 A3002 RMK A01 T00381005  RH  073%=      5-min Rain = 0
KHO1 181217Z 23006KT 04/M01 A3002 RMK A01 T00381005  RH  073%=      5-min Rain = 0
KHO1 181218Z 23006KT 04/M01 A3002 RMK A01 T00381005  RH  074%=      5-min Rain = 0
KHO1 181219Z 23005KT 04/M01 A3002 RMK A01 T00371005  RH  074%=      5-min Rain = 0
KHO1 181220Z 23005KT 04/M01 A3002 RMK A01 T00371005  RH  074%=      5-min Rain = 0
KHO1 181221Z 23005KT 04/M01 A3002 RMK A01 T00371005  RH  074%=      5-min Rain = 0
KHO1 181222Z 23005KT 04/M01 A3002 RMK A01 T00361005  RH  074%=      5-min Rain = 0
KHO1 181223Z 23005KT 04/M01 A3002 RMK A01 T00361006  RH  074%=      5-min Rain = 0
KHO1 181224Z 23005KT 04/M01 A3002 RMK A01 T00351006  RH  074%=      5-min Rain = 0
KHO1 181225Z 23005KT 04/M01 A3002 RMK A01 T00351006  RH  074%=      5-min Rain = 0
KHO1 181226Z 23006KT 04/M01 A3002 RMK A01 T00351006  RH  075%=      5-min Rain = 0
KHO1 181227Z 23006KT 04/M01 A3002 RMK A01 T00351006  RH  075%=      5-min Rain = 0
KHO1 181228Z 23006KT 03/M01 A3002 RMK A01 T00341006  RH  075%=      5-min Rain = 0
KHO1 181229Z 23006KT 03/M01 A3002 RMK A01 T00341006  RH  075%=      5-min Rain = 0
KHO1 181230Z 22007KT 03/M01 A3002 RMK A01 T00341005  RH  075%=      5-min Rain = 0
KHO1 181231Z 22007KT 04/M00 A3002 RMK A01 T00361003  RH  075%=      5-min Rain = 0
KHO1 181232Z 22007KT 04/M00 A3002 RMK A01 T00381003  RH  075%=      5-min Rain = 0
KHO1 181233Z 22007KT 04/M00 A3002 RMK A01 T00401003  RH  074%=      5-min Rain = 0
KHO1 181234Z 23006KT 04/M00 A3002 RMK A01 T00421003  RH  073%=      5-min Rain = 0
KHO1 181235Z 23006KT 04/M00 A3002 RMK A01 T00431003  RH  072%=      5-min Rain = 0
KHO1 181236Z 23005KT 04/M00 A3002 RMK A01 T00431003  RH  072%=      5-min Rain = 0
KHO1 181237Z 24005KT 04/M00 A3002 RMK A01 T00431003  RH  072%=      5-min Rain = 0
KHO1 181238Z 25005KT 04/M01 A3002 RMK A01 T00421005  RH  071%=      5-min Rain = 0
KHO1 181239Z 26004KT 04/M01 A3002 RMK A01 T00401006  RH  072%=      5-min Rain = 0
KHO1 181240Z 25004KT 04/M01 A3002 RMK A01 T00391007  RH  072%=      5-min Rain = 0
KHO1 181241Z 24004KT 04/M01 A3002 RMK A01 T00371008  RH  072%=      5-min Rain = 0
KHO1 181242Z 24004KT 04/M01 A3002 RMK A01 T00361007  RH  073%=      5-min Rain = 0
KHO1 181243Z 23005KT 04/M01 A3002 RMK A01 T00361007  RH  073%=      5-min Rain = 0
KHO1 181244Z 23005KT 04/M01 A3002 RMK A01 T00351007  RH  074%=      5-min Rain = 0
KHO1 181245Z 24005KT 04/M01 A3002 RMK A01 T00351007  RH  074%=      5-min Rain = 0
KHO1 181246Z 24004KT 04/M01 A3002 RMK A01 T00351006  RH  074%=      5-min Rain = 0
KHO1 181247Z 24005KT 04/M01 A3002 RMK A01 T00351006  RH  074%=      5-min Rain = 0
KHO1 181248Z 24005KT 04/M01 A3002 RMK A01 T00361006  RH  074%=      5-min Rain = 0
KHO1 181249Z 24005KT 04/M01 A3002 RMK A01 T00361006  RH  074%=      5-min Rain = 0
KHO1 181250Z 24005KT 04/M01 A3002 RMK A01 T00361006  RH  074%=      5-min Rain = 0
KHO1 181251Z 24005KT 04/M01 A3002 RMK A01 T00361007  RH  074%=      5-min Rain = 0
KHO1 181252Z 24006KT 04/M01 A3002 RMK A01 T00351007  RH  074%=      5-min Rain = 0
KHO1 181253Z 24006KT 03/M01 A3002 RMK A01 T00341007  RH  074%=      5-min Rain = 0
KHO1 181254Z 24006KT 03/M01 A3002 RMK A01 T00341007  RH  075%=      5-min Rain = 0
KHO1 181255Z 24006KT 03/M01 A3002 RMK A01 T00341006  RH  075%=      5-min Rain = 0
KHO1 181256Z 23006KT 03/M01 A3002 RMK A01 T00341006  RH  075%=      5-min Rain = 0
KHO1 181257Z 23007KT 03/M01 A3002 RMK A01 T00341006  RH  075%=      5-min Rain = 0
KHO1 181258Z 23006KT 04/M01 A3002 RMK A01 T00351005  RH  075%=      5-min Rain = 0
KHO1 181259Z 23006KT 04/M00 A3001 RMK A01 T00371004  RH  075%=      5-min Rain = 0
KHO1 181300Z 23006KT 04/M00 A3001 RMK A01 T00381003  RH  074%=      5-min Rain = 0
KHO1 181301Z 23006KT 04/M00 A3001 RMK A01 T00391003  RH  074%=      5-min Rain = 0
KHO1 181302Z 23006KT 04/M00 A3001 RMK A01 T00391003  RH  074%=      5-min Rain = 0
KHO1 181303Z 23006KT 04/M00 A3001 RMK A01 T00401004  RH  073%=      5-min Rain = 0
KHO1 181304Z 24006KT 04/M00 A3002 RMK A01 T00401004  RH  073%=      5-min Rain = 0
KHO1 181305Z 24006KT 04/M01 A3002 RMK A01 T00391005  RH  073%=      5-min Rain = 0
KHO1 181306Z 23006KT 04/M01 A3002 RMK A01 T00391005  RH  073%=      5-min Rain = 0
KHO1 181307Z 23006KT 04/M01 A3002 RMK A01 T00381006  RH  073%=      5-min Rain = 0
KHO1 181308Z 23005KT 04/M01 A3002 RMK A01 T00381006  RH  073%=      5-min Rain = 0
KHO1 181309Z 23005KT 04/M01 A3002 RMK A01 T00371006  RH  073%=      5-min Rain = 0
KHO1 181310Z 23006KT 04/M01 A3002 RMK A01 T00371006  RH  074%=      5-min Rain = 0
KHO1 181311Z 23005KT 04/M01 A3002 RMK A01 T00371006  RH  074%=      5-min Rain = 0
KHO1 181312Z 23006KT 04/M01 A3002 RMK A01 T00371006  RH  074%=      5-min Rain = 0
KHO1 181313Z 23005KT 04/M01 A3002 RMK A01 T00361006  RH  074%=      5-min Rain = 0
KHO1 181314Z 22005KT 04/M01 A3002 RMK A01 T00361006  RH  074%=      5-min Rain = 0
KHO1 181315Z 22005KT 04/M01 A3002 RMK A01 T00371005  RH  074%=      5-min Rain = 0
KHO1 181316Z 22005KT 04/M00 A3002 RMK A01 T00381004  RH  074%=      5-min Rain = 0
KHO1 181317Z 23005KT 04/M00 A3002 RMK A01 T00391004  RH  074%=      5-min Rain = 0
KHO1 181318Z 23004KT 04/M00 A3002 RMK A01 T00391004  RH  073%=      5-min Rain = 0
KHO1 181319Z 23004KT 04/M01 A3002 RMK A01 T00391005  RH  073%=      5-min Rain = 0
KHO1 181320Z 23004KT 04/M01 A3002 RMK A01 T00391005  RH  073%=      5-min Rain = 0
KHO1 181321Z 23004KT 04/M01 A3002 RMK A01 T00381006  RH  073%=      5-min Rain = 0
KHO1 181322Z 24003KT 04/M01 A3002 RMK A01 T00381006  RH  073%=      5-min Rain = 0
KHO1 181323Z 24003KT 04/M01 A3002 RMK A01 T00371006  RH  073%=      5-min Rain = 0
KHO1 181324Z 24003KT 04/M01 A3002 RMK A01 T00371006  RH  073%=      5-min Rain = 0
KHO1 181325Z 25003KT 04/M01 A3002 RMK A01 T00371006  RH  073%=      5-min Rain = 0
KHO1 181326Z 25004KT 04/M01 A3002 RMK A01 T00371005  RH  074%=      5-min Rain = 0
KHO1 181327Z 25004KT 04/M01 A3002 RMK A01 T00381005  RH  073%=      5-min Rain = 0
KHO1 181328Z 24005KT 04/M01 A3002 RMK A01 T00381006  RH  073%=      5-min Rain = 0
KHO1 181329Z 24005KT 04/M01 A3002 RMK A01 T00381006  RH  073%=      5-min Rain = 0
KHO1 181330Z 23005KT 04/M01 A3002 RMK A01 T00371007  RH  073%=      5-min Rain = 0
KHO1 181331Z 24005KT 04/M01 A3002 RMK A01 T00361007  RH  073%=      5-min Rain = 0
KHO1 181332Z 25005KT 04/M01 A3002 RMK A01 T00351007  RH  074%=      5-min Rain = 0
KHO1 181333Z 24005KT 04/M01 A3002 RMK A01 T00351007  RH  074%=      5-min Rain = 0
KHO1 181334Z 23006KT 04/M01 A3002 RMK A01 T00351007  RH  074%=      5-min Rain = 0
KHO1 181335Z 22006KT 03/M01 A3002 RMK A01 T00341007  RH  074%=      5-min Rain = 0
KHO1 181336Z 23006KT 04/M01 A3002 RMK A01 T00351006  RH  075%=      5-min Rain = 0
KHO1 181337Z 23005KT 04/M00 A3002 RMK A01 T00371004  RH  075%=      5-min Rain = 0
KHO1 181338Z 23004KT 04/M00 A3002 RMK A01 T00381004  RH  074%=      5-min Rain = 0
KHO1 181339Z 24004KT 04/M00 A3002 RMK A01 T00391003  RH  074%=      5-min Rain = 0
KHO1 181340Z 24004KT 04/M00 A3002 RMK A01 T00401003  RH  073%=      5-min Rain = 0
KHO1 181341Z 24004KT 04/M00 A3002 RMK A01 T00411004  RH  073%=      5-min Rain = 0
KHO1 181342Z 23004KT 04/M00 A3002 RMK A01 T00411004  RH  072%=      5-min Rain = 0
KHO1 181343Z 23005KT 04/M00 A3002 RMK A01 T00421004  RH  072%=      5-min Rain = 0
KHO1 181344Z 24005KT 04/M00 A3002 RMK A01 T00431004  RH  072%=      5-min Rain = 0
KHO1 181345Z 23005KT 04/M01 A3002 RMK A01 T00431005  RH  071%=      5-min Rain = 0
KHO1 181346Z 23006KT 04/M01 A3002 RMK A01 T00421005  RH  071%=      5-min Rain = 0
KHO1 181347Z 22006KT 04/M01 A3002 RMK A01 T00431005  RH  071%=      5-min Rain = 0
KHO1 181348Z 22006KT 04/M00 A3002 RMK A01 T00431004  RH  071%=      5-min Rain = 0
KHO1 181349Z 22006KT 05/M00 A3002 RMK A01 T00451003  RH  071%=      5-min Rain = 0
KHO1 181350Z 22006KT 05/M00 A3002 RMK A01 T00461002  RH  071%=      5-min Rain = 0
KHO1 181351Z 21006KT 05/M00 A3002 RMK A01 T00481002  RH  070%=      5-min Rain = 0
KHO1 181352Z 22006KT 05/M00 A3002 RMK A01 T00481002  RH  070%=      5-min Rain = 0
KHO1 181353Z 22006KT 05/M00 A3002 RMK A01 T00481002  RH  070%=      5-min Rain = 0
KHO1 181354Z 22006KT 05/M00 A3002 RMK A01 T00491002  RH  070%=      5-min Rain = 0
KHO1 181355Z 22006KT 05/M00 A3002 RMK A01 T00491002  RH  070%=      5-min Rain = 0
KHO1 181356Z 22006KT 05/M00 A3002 RMK A01 T00501001  RH  069%=      5-min Rain = 0
KHO1 181357Z 22005KT 05/M00 A3002 RMK A01 T00501001  RH  069%=      5-min Rain = 0
KHO1 181358Z 22005KT 05/M00 A3002 RMK A01 T00511001  RH  069%=      5-min Rain = 0
KHO1 181359Z 22005KT 05/M00 A3002 RMK A01 T00521001  RH  068%=      5-min Rain = 0
KHO1 181400Z 22005KT 05/M00 A3002 RMK A01 T00531001  RH  068%=      5-min Rain = 0
KHO1 181401Z 22006KT 05/M00 A3002 RMK A01 T00531001  RH  068%=      5-min Rain = 0
KHO1 181402Z 22005KT 05/M00 A3002 RMK A01 T00541001  RH  068%=      5-min Rain = 0
KHO1 181403Z 22005KT 06/00 A3002 RMK A01 T005500-0  RH  068%=      5-min Rain = 0
KHO1 181404Z 22005KT 06/00 A3002 RMK A01 T00560000  RH  067%=      5-min Rain = 0
KHO1 181405Z 22005KT 06/00 A3002 RMK A01 T00570001  RH  067%=      5-min Rain = 0
KHO1 181406Z 22004KT 06/00 A3002 RMK A01 T00580001  RH  067%=      5-min Rain = 0
KHO1 181407Z 22004KT 06/00 A3002 RMK A01 T00580001  RH  067%=      5-min Rain = 0
KHO1 181408Z 23004KT 06/00 A3002 RMK A01 T00590001  RH  066%=      5-min Rain = 0
KHO1 181409Z 24003KT 06/00 A3002 RMK A01 T00600003  RH  066%=      5-min Rain = 0
KHO1 181410Z 23003KT 06/00 A3002 RMK A01 T00610003  RH  066%=      5-min Rain = 0
KHO1 181411Z 23003KT 06/00 A3002 RMK A01 T00620004  RH  066%=      5-min Rain = 0
KHO1 181412Z 24002KT 06/00 A3002 RMK A01 T00630004  RH  066%=      5-min Rain = 0
KHO1 181413Z 24002KT 06/00 A3003 RMK A01 T00640004  RH  066%=      5-min Rain = 0
KHO1 181414Z 23002KT 07/01 A3002 RMK A01 T00650005  RH  066%=      5-min Rain = 0
KHO1 181415Z 23003KT 07/01 A3002 RMK A01 T00650005  RH  065%=      5-min Rain = 0
KHO1 181416Z 21004KT 07/00 A3002 RMK A01 T00650004  RH  065%=      5-min Rain = 0
KHO1 181417Z 21004KT 07/00 A3002 RMK A01 T00660004  RH  064%=      5-min Rain = 0
KHO1 181418Z 21003KT 07/01 A3002 RMK A01 T00670005  RH  065%=      5-min Rain = 0
KHO1 181419Z 22003KT 07/01 A3002 RMK A01 T00680006  RH  064%=      5-min Rain = 0
KHO1 181420Z 22003KT 07/01 A3003 RMK A01 T00690005  RH  064%=      5-min Rain = 0
KHO1 181421Z 22003KT 07/00 A3003 RMK A01 T00690004  RH  063%=      5-min Rain = 0
KHO1 181422Z 22002KT 07/01 A3003 RMK A01 T00700005  RH  063%=      5-min Rain = 0
KHO1 181423Z 22002KT 07/01 A3003 RMK A01 T00710006  RH  063%=      5-min Rain = 0
KHO1 181424Z 22003KT 07/01 A3003 RMK A01 T00720006  RH  063%=      5-min Rain = 0
KHO1 181425Z 23002KT 07/01 A3003 RMK A01 T00730006  RH  063%=      5-min Rain = 0
KHO1 181426Z 23002KT 07/01 A3003 RMK A01 T00740006  RH  062%=      5-min Rain = 0
KHO1 181427Z 23003KT 07/01 A3003 RMK A01 T00740007  RH  062%=      5-min Rain = 0
KHO1 181428Z 22002KT 08/01 A3003 RMK A01 T00750008  RH  062%=      5-min Rain = 0
KHO1 181429Z 23002KT 08/01 A3003 RMK A01 T00760008  RH  062%=      5-min Rain = 0
KHO1 181430Z 24003KT 08/01 A3003 RMK A01 T00770008  RH  062%=      5-min Rain = 0
KHO1 181431Z 24002KT 08/01 A3003 RMK A01 T00770009  RH  062%=      5-min Rain = 0
KHO1 181432Z 24002KT 08/01 A3003 RMK A01 T00780009  RH  062%=      5-min Rain = 0
KHO1 181433Z 23002KT 08/01 A3003 RMK A01 T00780011  RH  062%=      5-min Rain = 0
KHO1 181434Z 24002KT 08/01 A3003 RMK A01 T00790012  RH  062%=      5-min Rain = 0
KHO1 181435Z 24003KT 08/01 A3003 RMK A01 T00800012  RH  062%=      5-min Rain = 0
KHO1 181436Z 23002KT 08/01 A3003 RMK A01 T00800012  RH  062%=      5-min Rain = 0
KHO1 181437Z 23002KT 08/01 A3003 RMK A01 T00810011  RH  062%=      5-min Rain = 0
KHO1 181438Z 25003KT 08/01 A3003 RMK A01 T00820012  RH  062%=      5-min Rain = 0
KHO1 181439Z 24003KT 08/01 A3003 RMK A01 T00830013  RH  061%=      5-min Rain = 0
KHO1 181440Z 25003KT 08/01 A3003 RMK A01 T00830013  RH  061%=      5-min Rain = 0
KHO1 181441Z 26002KT 08/01 A3004 RMK A01 T00840013  RH  061%=      5-min Rain = 0
KHO1 181442Z 26002KT 09/01 A3003 RMK A01 T00850014  RH  061%=      5-min Rain = 0
KHO1 181443Z 25002KT 09/02 A3004 RMK A01 T00860017  RH  062%=      5-min Rain = 0
KHO1 181444Z 26003KT 09/02 A3003 RMK A01 T00880016  RH  061%=      5-min Rain = 0
KHO1 181445Z 25003KT 09/02 A3003 RMK A01 T00880015  RH  060%=      5-min Rain = 0
KHO1 181446Z 25004KT 09/01 A3003 RMK A01 T00890014  RH  060%=      5-min Rain = 0
KHO1 181447Z 25006KT 09/01 A3003 RMK A01 T00900013  RH  058%=      5-min Rain = 0
KHO1 181448Z 25005KT 09/01 A3003 RMK A01 T00930013  RH  057%=      5-min Rain = 0
KHO1 181449Z 26005KT 10/01 A3003 RMK A01 T00950014  RH  057%=      5-min Rain = 0
KHO1 181450Z 25005KT 10/01 A3003 RMK A01 T00980014  RH  056%=      5-min Rain = 0
KHO1 181451Z 25006KT 10/01 A3003 RMK A01 T01000012  RH  054%=      5-min Rain = 0
KHO1 181452Z 25006KT 10/01 A3003 RMK A01 T01020009  RH  052%=      5-min Rain = 0
KHO1 181453Z 24005KT 11/01 A3003 RMK A01 T01050011  RH  052%=      5-min Rain = 0
KHO1 181454Z 24005KT 11/01 A3003 RMK A01 T01060012  RH  052%=      5-min Rain = 0
KHO1 181455Z 25006KT 11/01 A3003 RMK A01 T01070012  RH  052%=      5-min Rain = 0
KHO1 181456Z 24005KT 11/01 A3003 RMK A01 T01090010  RH  050%=      5-min Rain = 0
KHO1 181457Z 24005KT 11/01 A3003 RMK A01 T01110012  RH  051%=      5-min Rain = 0
KHO1 181458Z 25005KT 11/01 A3003 RMK A01 T01120011  RH  049%=      5-min Rain = 0
KHO1 181459Z 25005KT 11/01 A3003 RMK A01 T01140009  RH  048%=      5-min Rain = 0
KHO1 181500Z 25006KT 12/01 A3003 RMK A01 T01160008  RH  047%=      5-min Rain = 0
KHO1 181501Z 25005KT 12/01 A3003 RMK A01 T01170007  RH  047%=      5-min Rain = 0
KHO1 181502Z 26005KT 12/01 A3003 RMK A01 T01180006  RH  046%=      5-min Rain = 0
KHO1 181503Z 27004KT 12/01 A3003 RMK A01 T01190006  RH  046%=      5-min Rain = 0
KHO1 181504Z 27004KT 12/01 A3003 RMK A01 T01190008  RH  046%=      5-min Rain = 0
KHO1 181505Z 26005KT 12/01 A3003 RMK A01 T01200007  RH  046%=      5-min Rain = 0
KHO1 181506Z 25004KT 12/01 A3003 RMK A01 T01210008  RH  046%=      5-min Rain = 0
KHO1 181507Z 26005KT 12/01 A3003 RMK A01 T01220007  RH  045%=      5-min Rain = 0
KHO1 181508Z 26005KT 12/01 A3003 RMK A01 T01230007  RH  045%=      5-min Rain = 0
KHO1 181509Z 27006KT 12/01 A3003 RMK A01 T01240005  RH  044%=      5-min Rain = 0
KHO1 181510Z 27006KT 13/01 A3003 RMK A01 T01250006  RH  044%=      5-min Rain = 0
KHO1 181511Z 27006KT 13/01 A3003 RMK A01 T01250006  RH  044%=      5-min Rain = 0
KHO1 181512Z 28007KT 13/01 A3003 RMK A01 T01260005  RH  044%=      5-min Rain = 0
KHO1 181513Z 27007KT 13/01 A3003 RMK A01 T01260005  RH  043%=      5-min Rain = 0
KHO1 181514Z 27006KT 13/01 A3003 RMK A01 T01270006  RH  044%=      5-min Rain = 0
KHO1 181515Z 28006KT 13/01 A3003 RMK A01 T01290008  RH  044%=      5-min Rain = 0
KHO1 181516Z 26008KT 13/01 A3003 RMK A01 T01300006  RH  043%=      5-min Rain = 0
KHO1 181517Z 27008KT 13/00 A3003 RMK A01 T01300002  RH  041%=      5-min Rain = 0
KHO1 181518Z 28006KT 13/00 A3004 RMK A01 T01320003  RH  041%=      5-min Rain = 0
KHO1 181519Z 28007KT 13/01 A3004 RMK A01 T01330005  RH  041%=      5-min Rain = 0
KHO1 181520Z 27008KT 14/00 A3004 RMK A01 T01350001  RH  040%=      5-min Rain = 0
KHO1 181521Z 28007KT 14/00 A3004 RMK A01 T01350002  RH  040%=      5-min Rain = 0
KHO1 181522Z 28008KT 14/00 A3004 RMK A01 T01360001  RH  039%=      5-min Rain = 0
KHO1 181523Z 29010KT 14/M00 A3004 RMK A01 T01371003  RH  038%=      5-min Rain = 0
KHO1 181524Z 28011KT 14/M01 A3004 RMK A01 T01371005  RH  038%=      5-min Rain = 0
KHO1 181525Z 28009KT 14/M00 A3004 RMK A01 T01381003  RH  038%=      5-min Rain = 0
KHO1 181526Z 28007KT 14/M00 A3004 RMK A01 T01391001  RH  038%=      5-min Rain = 0
KHO1 181527Z 27009KT 14/M00 A3004 RMK A01 T01401001  RH  038%=      5-min Rain = 0
KHO1 181528Z 28009KT 14/M00 A3004 RMK A01 T01411003  RH  037%=      5-min Rain = 0
KHO1 181529Z 27008KT 14/M00 A3003 RMK A01 T01411002  RH  037%=      5-min Rain = 0
KHO1 181530Z 28008KT 14/M00 A3003 RMK A01 T01421003  RH  037%=      5-min Rain = 0
KHO1 181531Z 28008KT 14/M00 A3003 RMK A01 T01441003  RH  037%=      5-min Rain = 0
KHO1 181532Z 28010KT 14/M01 A3003 RMK A01 T01441007  RH  035%=      5-min Rain = 0
KHO1 181533Z 28008KT 15/M01 A3003 RMK A01 T01451008  RH  035%=      5-min Rain = 0
KHO1 181534Z 28010KT 15/M01 A3003 RMK A01 T01461008  RH  035%=      5-min Rain = 0
KHO1 181535Z 28011KT 15/M01 A3003 RMK A01 T01461012  RH  034%=      5-min Rain = 0
KHO1 181536Z 28009KT 15/M01 A3003 RMK A01 T01461010  RH  034%=      5-min Rain = 0
KHO1 181537Z 30009KT 15/M01 A3004 RMK A01 T01471008  RH  035%=      5-min Rain = 0
KHO1 181538Z 29008KT 15/M01 A3003 RMK A01 T01481006  RH  035%=      5-min Rain = 0
KHO1 181539Z 29006KT 15/M00 A3003 RMK A01 T01501004  RH  035%=      5-min Rain = 0
KHO1 181540Z 27010KT 15/M01 A3003 RMK A01 T01511009  RH  033%=      5-min Rain = 0
KHO1 181541Z 28009KT 15/M01 A3003 RMK A01 T01511010  RH  033%=      5-min Rain = 0
KHO1 181542Z 28008KT 15/M01 A3003 RMK A01 T01511009  RH  033%=      5-min Rain = 0
KHO1 181543Z 28008KT 15/M01 A3004 RMK A01 T01521009  RH  033%=      5-min Rain = 0
KHO1 181544Z 28007KT 15/M01 A3004 RMK A01 T01531007  RH  033%=      5-min Rain = 0
KHO1 181545Z 29008KT 16/M01 A3004 RMK A01 T01551010  RH  032%=      5-min Rain = 0
KHO1 181546Z 28009KT 16/M01 A3004 RMK A01 T01571010  RH  032%=      5-min Rain = 0
KHO1 181547Z 27009KT 16/M01 A3004 RMK A01 T01571013  RH  031%=      5-min Rain = 0
KHO1 181548Z 28009KT 16/M01 A3004 RMK A01 T01581011  RH  031%=      5-min Rain = 0
KHO1 181549Z 28010KT 16/M01 A3004 RMK A01 T01591013  RH  031%=      5-min Rain = 0
KHO1 181550Z 28007KT 16/M01 A3004 RMK A01 T01611011  RH  031%=      5-min Rain = 0
KHO1 181551Z 28007KT 16/M01 A3004 RMK A01 T01631009  RH  031%=      5-min Rain = 0
KHO1 181552Z 29008KT 16/M01 A3004 RMK A01 T01641014  RH  030%=      5-min Rain = 0
KHO1 181553Z 28007KT 17/M01 A3004 RMK A01 T01651013  RH  030%=      5-min Rain = 0
KHO1 181554Z 28007KT 17/M01 A3003 RMK A01 T01651013  RH  030%=      5-min Rain = 0
KHO1 181555Z 28007KT 17/M02 A3003 RMK A01 T01671015  RH  029%=      5-min Rain = 0
KHO1 181556Z 28008KT 17/M02 A3003 RMK A01 T01681016  RH  028%=      5-min Rain = 0
KHO1 181557Z 28008KT 17/M02 A3003 RMK A01 T01681017  RH  028%=      5-min Rain = 0
KHO1 181558Z 28008KT 17/M02 A3003 RMK A01 T01681019  RH  028%=      5-min Rain = 0
KHO1 181559Z 28007KT 17/M02 A3003 RMK A01 T01691017  RH  028%=      5-min Rain = 0
KHO1 181600Z 29006KT 17/M02 A3004 RMK A01 T01701015  RH  028%=      5-min Rain = 0
KHO1 181601Z 28007KT 17/M02 A3004 RMK A01 T01711016  RH  028%=      5-min Rain = 0
KHO1 181602Z 27008KT 17/M02 A3004 RMK A01 T01711019  RH  027%=      5-min Rain = 0
KHO1 181603Z 28008KT 17/M02 A3004 RMK A01 T01711019  RH  027%=      5-min Rain = 0
KHO1 181604Z 28008KT 17/M02 A3004 RMK A01 T01721020  RH  027%=      5-min Rain = 0
KHO1 181605Z 28007KT 17/M02 A3004 RMK A01 T01721018  RH  027%=      5-min Rain = 0
KHO1 181606Z 28006KT 17/M02 A3004 RMK A01 T01741016  RH  027%=      5-min Rain = 0
KHO1 181607Z 29007KT 17/M02 A3004 RMK A01 T01741019  RH  027%=      5-min Rain = 0
KHO1 181608Z 28008KT 18/M02 A3004 RMK A01 T01751019  RH  027%=      5-min Rain = 0
KHO1 181609Z 28007KT 18/M02 A3004 RMK A01 T01761019  RH  027%=      5-min Rain = 0
KHO1 181610Z 28007KT 18/M02 A3003 RMK A01 T01761020  RH  026%=      5-min Rain = 0
KHO1 181611Z 28006KT 18/M02 A3003 RMK A01 T01771016  RH  027%=      5-min Rain = 0
KHO1 181612Z 28006KT 18/M02 A3003 RMK A01 T01791017  RH  026%=      5-min Rain = 0
KHO1 181613Z 27007KT 18/M02 A3003 RMK A01 T01801017  RH  026%=      5-min Rain = 0
KHO1 181614Z 28006KT 18/M02 A3003 RMK A01 T01801016  RH  026%=      5-min Rain = 0
KHO1 181615Z 28005KT 18/M01 A3003 RMK A01 T01821013  RH  027%=      5-min Rain = 0
KHO1 181616Z 28006KT 18/M02 A3003 RMK A01 T01841017  RH  026%=      5-min Rain = 0
KHO1 181617Z 28006KT 19/M02 A3004 RMK A01 T01851018  RH  025%=      5-min Rain = 0
KHO1 181618Z 29006KT 19/M02 A3004 RMK A01 T01851020  RH  025%=      5-min Rain = 0
KHO1 181619Z 29006KT 19/M02 A3004 RMK A01 T01871018  RH  025%=      5-min Rain = 0
KHO1 181620Z 30007KT 19/M02 A3004 RMK A01 T01881019  RH  025%=      5-min Rain = 0
KHO1 181621Z 29006KT 19/M02 A3003 RMK A01 T01901022  RH  024%=      5-min Rain = 0
KHO1 181622Z 30006KT 19/M02 A3004 RMK A01 T01911019  RH  024%=      5-min Rain = 0
KHO1 181623Z 30005KT 19/M02 A3004 RMK A01 T01921021  RH  024%=      5-min Rain = 0
KHO1 181624Z 28006KT 19/M02 A3004 RMK A01 T01931018  RH  024%=      5-min Rain = 0
KHO1 181625Z 29006KT 19/M02 A3004 RMK A01 T01931021  RH  023%=      5-min Rain = 0
KHO1 181626Z 29007KT 19/M02 A3004 RMK A01 T01941023  RH  023%=      5-min Rain = 0
KHO1 181627Z 29007KT 19/M02 A3004 RMK A01 T01931021  RH  023%=      5-min Rain = 0
KHO1 181628Z 29007KT 19/M02 A3003 RMK A01 T01931023  RH  023%=      5-min Rain = 0
KHO1 181629Z 29006KT 19/M02 A3003 RMK A01 T01931022  RH  023%=      5-min Rain = 0
KHO1 181630Z 28006KT 19/M02 A3003 RMK A01 T01931020  RH  024%=      5-min Rain = 0
KHO1 181631Z 28006KT 19/M02 A3003 RMK A01 T01931020  RH  024%=      5-min Rain = 0
KHO1 181632Z 29007KT 19/M02 A3003 RMK A01 T01941022  RH  023%=      5-min Rain = 0
KHO1 181633Z 28007KT 19/M02 A3003 RMK A01 T01941023  RH  023%=      5-min Rain = 0
KHO1 181634Z 29007KT 20/M02 A3003 RMK A01 T01951021  RH  023%=      5-min Rain = 0
KHO1 181635Z 28007KT 20/M02 A3003 RMK A01 T01961023  RH  023%=      5-min Rain = 0
KHO1 181636Z 28007KT 20/M03 A3003 RMK A01 T01951025  RH  022%=      5-min Rain = 0
KHO1 181637Z 28007KT 20/M02 A3003 RMK A01 T01961022  RH  023%=      5-min Rain = 0
KHO1 181638Z 31007KT 20/M02 A3003 RMK A01 T01971020  RH  023%=      5-min Rain = 0
KHO1 181639Z 30006KT 20/M02 A3003 RMK A01 T01991019  RH  023%=      5-min Rain = 0
KHO1 181640Z 31006KT 20/M02 A3003 RMK A01 T02001018  RH  023%=      5-min Rain = 0
KHO1 181641Z 30006KT 20/M02 A3003 RMK A01 T02001019  RH  023%=      5-min Rain = 0
KHO1 181642Z 28006KT 20/M02 A3003 RMK A01 T02011020  RH  022%=      5-min Rain = 0
KHO1 181643Z 30007KT 20/M03 A3003 RMK A01 T01991027  RH  022%=      5-min Rain = 0
KHO1 181644Z 31006KT 20/M02 A3003 RMK A01 T01981020  RH  023%=      5-min Rain = 0
KHO1 181645Z 29006KT 20/M02 A3003 RMK A01 T02001022  RH  022%=      5-min Rain = 0
KHO1 181646Z 29008KT 20/M03 A3003 RMK A01 T02001031  RH  021%=      5-min Rain = 0
KHO1 181647Z 30007KT 20/M03 A3003 RMK A01 T01991028  RH  021%=      5-min Rain = 0
KHO1 181648Z 30005KT 20/M02 A3003 RMK A01 T01991024  RH  022%=      5-min Rain = 0
KHO1 181649Z 30006KT 20/M02 A3003 RMK A01 T02001021  RH  022%=      5-min Rain = 0
KHO1 181650Z 29006KT 20/M02 A3003 RMK A01 T02011018  RH  023%=      5-min Rain = 0
KHO1 181651Z 29006KT 20/M02 A3003 RMK A01 T02021021  RH  022%=      5-min Rain = 0
KHO1 181652Z 30005KT 20/M02 A3003 RMK A01 T02021019  RH  022%=      5-min Rain = 0
KHO1 181653Z 30008KT 20/M03 A3003 RMK A01 T02021025  RH  021%=      5-min Rain = 0
KHO1 181654Z 29007KT 20/M02 A3003 RMK A01 T02021023  RH  022%=      5-min Rain = 0
KHO1 181655Z 31007KT 20/M02 A3003 RMK A01 T02031024  RH  022%=      5-min Rain = 0
KHO1 181656Z 31007KT 20/M03 A3003 RMK A01 T02031028  RH  021%=      5-min Rain = 0
KHO1 181657Z 31006KT 20/M03 A3003 RMK A01 T02031025  RH  021%=      5-min Rain = 0
KHO1 181658Z 30006KT 20/M02 A3003 RMK A01 T02041022  RH  022%=      5-min Rain = 0
KHO1 181659Z 29005KT 20/M03 A3003 RMK A01 T02041026  RH  021%=      5-min Rain = 0
KHO1 181700Z 29006KT 20/M02 A3003 RMK A01 T02041021  RH  022%=      5-min Rain = 0
KHO1 181701Z 30007KT 21/M02 A3003 RMK A01 T02051022  RH  022%=      5-min Rain = 0
KHO1 181702Z 31008KT 21/M03 A3003 RMK A01 T02051027  RH  021%=      5-min Rain = 0
KHO1 181703Z 30007KT 21/M03 A3003 RMK A01 T02051027  RH  021%=      5-min Rain = 0
KHO1 181704Z 29006KT 21/M02 A3003 RMK A01 T02051023  RH  021%=      5-min Rain = 0
KHO1 181705Z 30008KT 21/M02 A3003 RMK A01 T02061023  RH  021%=      5-min Rain = 0
KHO1 181706Z 29006KT 21/M03 A3003 RMK A01 T02071025  RH  021%=      5-min Rain = 0
KHO1 181707Z 30004KT 21/M03 A3003 RMK A01 T02071025  RH  021%=      5-min Rain = 0
KHO1 181708Z 29005KT 21/M03 A3003 RMK A01 T02071025  RH  021%=      5-min Rain = 0
KHO1 181709Z 28007KT 21/M02 A3003 RMK A01 T02081024  RH  021%=      5-min Rain = 0
KHO1 181710Z 29006KT 21/M02 A3003 RMK A01 T02071022  RH  021%=      5-min Rain = 0
KHO1 181711Z 30007KT 21/M02 A3003 RMK A01 T02091023  RH  021%=      5-min Rain = 0
KHO1 181712Z 30008KT 21/M02 A3003 RMK A01 T02111023  RH  021%=      5-min Rain = 0
KHO1 181713Z 32010KT 21/M04 A3003 RMK A01 T02121038  RH  018%=      5-min Rain = 0
KHO1 181714Z 32011KT 21/M04 A3002 RMK A01 T02131043  RH  018%=      5-min Rain = 0
KHO1 181715Z 31011KT 21/M05 A3002 RMK A01 T02141046  RH  017%=      5-min Rain = 0
KHO1 181716Z 32013KT 21/M05 A3002 RMK A01 T02131049  RH  017%=      5-min Rain = 0
KHO1 181717Z 32012KT 21/M05 A3002 RMK A01 T02121050  RH  017%=      5-min Rain = 0
KHO1 181718Z 31009KT 21/M04 A3002 RMK A01 T02131042  RH  018%=      5-min Rain = 0
KHO1 181719Z 32009KT 22/M04 A3002 RMK A01 T02151043  RH  017%=      5-min Rain = 0
KHO1 181720Z 32012KT 22/M05 A3002 RMK A01 T02151052  RH  016%=      5-min Rain = 0
KHO1 181721Z 31011KT 21/M05 A3002 RMK A01 T02141049  RH  017%=      5-min Rain = 0
KHO1 181722Z 29012KT 21/M05 A3002 RMK A01 T02141053  RH  016%=      5-min Rain = 0
KHO1 181723Z 31010KT 21/M05 A3002 RMK A01 T02141046  RH  017%=      5-min Rain = 0
KHO1 181724Z 31011KT 22/M05 A3002 RMK A01 T02161051  RH  016%=      5-min Rain = 0
KHO1 181725Z 31012KT 22/M05 A3002 RMK A01 T02151053  RH  016%=      5-min Rain = 0
KHO1 181726Z 30010KT 22/M05 A3002 RMK A01 T02151054  RH  016%=      5-min Rain = 0
KHO1 181727Z 29013KT 22/M06 A3002 RMK A01 T02151056  RH  016%=      5-min Rain = 0
KHO1 181728Z 30012KT 22/M06 A3002 RMK A01 T02151061  RH  015%=      5-min Rain = 0
KHO1 181729Z 30010KT 21/M06 A3002 RMK A01 T02141058  RH  016%=      5-min Rain = 0
KHO1 181730Z 31013G19KT 22/M05 A3002 RMK A01 T02161054  RH  016%=      5-min Rain = 0
KHO1 181731Z 30014KT 22/M06 A3002 RMK A01 T02161059  RH  015%=      5-min Rain = 0
KHO1 181732Z 30016KT 21/M06 A3002 RMK A01 T02141063  RH  015%=      5-min Rain = 0
KHO1 181733Z 29012KT 21/M06 A3002 RMK A01 T02131064  RH  015%=      5-min Rain = 0
KHO1 181734Z 30011KT 21/M06 A3002 RMK A01 T02131064  RH  015%=      5-min Rain = 0
KHO1 181735Z 30012KT 21/M06 A3002 RMK A01 T02131060  RH  015%=      5-min Rain = 0
KHO1 181736Z 30015KT 21/M06 A3001 RMK A01 T02141063  RH  015%=      5-min Rain = 0
KHO1 181737Z 30015KT 21/M06 A3001 RMK A01 T02131064  RH  015%=      5-min Rain = 0
KHO1 181738Z 31015KT 21/M06 A3001 RMK A01 T02131064  RH  015%=      5-min Rain = 0
KHO1 181739Z 31011KT 21/M06 A3001 RMK A01 T02141055  RH  016%=      5-min Rain = 0
KHO1 181740Z 31010KT 22/M06 A3001 RMK A01 T02161055  RH  016%=      5-min Rain = 0
KHO1 181741Z 31014KT 22/M06 A3001 RMK A01 T02161056  RH  016%=      5-min Rain = 0
KHO1 181742Z 32015KT 22/M06 A3001 RMK A01 T02151061  RH  015%=      5-min Rain = 0
KHO1 181743Z 31011KT 21/M06 A3001 RMK A01 T02141063  RH  015%=      5-min Rain = 0
KHO1 181744Z 30011KT 21/M06 A3001 RMK A01 T02141057  RH  016%=      5-min Rain = 0
KHO1 181745Z 30012KT 22/M06 A3001 RMK A01 T02151059  RH  015%=      5-min Rain = 0
KHO1 181746Z 32011KT 22/M06 A3001 RMK A01 T02161055  RH  016%=      5-min Rain = 0
KHO1 181747Z 32014KT 22/M06 A3001 RMK A01 T02151063  RH  015%=      5-min Rain = 0
KHO1 181748Z 33013KT 21/M06 A3001 RMK A01 T02131064  RH  015%=      5-min Rain = 0
KHO1 181749Z 33010KT 21/M06 A3001 RMK A01 T02121061  RH  015%=      5-min Rain = 0
KHO1 181750Z 32012KT 21/M06 A3001 RMK A01 T02121061  RH  015%=      5-min Rain = 0
KHO1 181751Z 32011KT 21/M05 A3001 RMK A01 T02141054  RH  016%=      5-min Rain = 0
KHO1 181752Z 32012KT 22/M05 A3001 RMK A01 T02151054  RH  016%=      5-min Rain = 0
KHO1 181753Z 31010KT 22/M06 A3001 RMK A01 T02151055  RH  016%=      5-min Rain = 0
KHO1 181754Z 32011G17KT 22/M06 A3001 RMK A01 T02161060  RH  015%=      5-min Rain = 0
KHO1 181755Z 32013KT 22/M06 A3001 RMK A01 T02161060  RH  015%=      5-min Rain = 0
KHO1 181756Z 32014KT 22/M06 A3001 RMK A01 T02151063  RH  015%=      5-min Rain = 0
KHO1 181757Z 33012KT 21/M06 A3001 RMK A01 T02131061  RH  015%=      5-min Rain = 0
KHO1 181758Z 32011KT 21/M07 A3001 RMK A01 T02131065  RH  015%=      5-min Rain = 0
KHO1 181759Z 32009KT 21/M07 A3001 RMK A01 T02121066  RH  015%=      5-min Rain = 0
KHO1 181800Z 32014KT 21/M07 A3001 RMK A01 T02121065  RH  015%=      5-min Rain = 0
KHO1 181801Z 31010KT 21/M06 A3001 RMK A01 T02121064  RH  015%=      5-min Rain = 0
KHO1 181802Z 31012KT 21/M06 A3001 RMK A01 T02131064  RH  015%=      5-min Rain = 0
KHO1 181803Z 31014KT 21/M06 A3001 RMK A01 T02131063  RH  015%=      5-min Rain = 0
KHO1 181804Z 31012KT 21/M06 A3001 RMK A01 T02131055  RH  016%=      5-min Rain = 0
KHO1 181805Z 32011KT 21/M06 A3001 RMK A01 T02131058  RH  016%=      5-min Rain = 0
KHO1 181806Z 33009KT 21/M06 A3001 RMK A01 T02121060  RH  016%=      5-min Rain = 0
KHO1 181807Z 32008KT 21/M06 A3001 RMK A01 T02121058  RH  016%=      5-min Rain = 0
KHO1 181808Z 32007G12KT 21/M05 A3001 RMK A01 T02141054  RH  016%=      5-min Rain = 0
KHO1 181809Z 31010G15KT 22/M06 A3001 RMK A01 T02151055  RH  016%=      5-min Rain = 0
KHO1 181810Z 31013KT 22/M06 A3001 RMK A01 T02151062  RH  015%=      5-min Rain = 0
KHO1 181811Z 31011KT 21/M06 A3001 RMK A01 T02141056  RH  016%=      5-min Rain = 0
KHO1 181812Z 30012KT 21/M06 A30 RMK A01 T02141055  RH  016%=      5-min Rain = 0
KHO1 181813Z 30011KT 21/M06 A3001 RMK A01 T02141062  RH  015%=      5-min Rain = 0
KHO1 181814Z 30010KT 21/M06 A3001 RMK A01 T02121062  RH  015%=      5-min Rain = 0
KHO1 181815Z 32012KT 21/M06 A30 RMK A01 T02131058  RH  016%=      5-min Rain = 0
KHO1 181816Z 32015KT 21/M06 A30 RMK A01 T02131062  RH  015%=      5-min Rain = 0
KHO1 181817Z 32014KT 21/M07 A30 RMK A01 T02101067  RH  015%=      5-min Rain = 0
KHO1 181818Z 33011KT 21/M06 A30 RMK A01 T02091064  RH  015%=      5-min Rain = 0
KHO1 181819Z 33008KT 21/M06 A30 RMK A01 T02101058  RH  016%=      5-min Rain = 0
KHO1 181820Z 32007KT 21/M06 A30 RMK A01 T02121059  RH  016%=      5-min Rain = 0
KHO1 181821Z 32008KT 21/M06 A30 RMK A01 T02131056  RH  016%=      5-min Rain = 0
KHO1 181822Z 32009KT 21/M05 A30 RMK A01 T02141054  RH  016%=      5-min Rain = 0
KHO1 181823Z 32010KT 22/M05 A30 RMK A01 T02151052  RH  016%=      5-min Rain = 0
KHO1 181824Z 32011KT 22/M06 A30 RMK A01 T02151060  RH  015%=      5-min Rain = 0
KHO1 181825Z 32011KT 21/M06 A30 RMK A01 T02131061  RH  015%=      5-min Rain = 0
KHO1 181826Z 32009KT 21/M06 A30 RMK A01 T02121057  RH  016%=      5-min Rain = 0
KHO1 181827Z 31011KT 21/M06 A30 RMK A01 T02121059  RH  016%=      5-min Rain = 0
KHO1 181828Z 31010KT 21/M06 A30 RMK A01 T02121058  RH  016%=      5-min Rain = 0
KHO1 181829Z 31010KT 21/M05 A30 RMK A01 T02141053  RH  016%=      5-min Rain = 0
KHO1 181830Z 31011KT 21/M06 A30 RMK A01 T02141061  RH  015%=      5-min Rain = 0
KHO1 181831Z 31006KT 21/M06 A30 RMK A01 T02131058  RH  016%=      5-min Rain = 0
KHO1 181832Z 32005KT 22/M05 A30 RMK A01 T02151054  RH  016%=      5-min Rain = 0
KHO1 181833Z 33012KT 22/M06 A30 RMK A01 T02161059  RH  015%=      5-min Rain = 0
KHO1 181834Z 33012KT 21/M06 A30 RMK A01 T02131061  RH  015%=      5-min Rain = 0
KHO1 181835Z 32009KT 21/M06 A30 RMK A01 T02121059  RH  016%=      5-min Rain = 0
KHO1 181836Z 32008KT 21/M06 A30 RMK A01 T02141059  RH  016%=      5-min Rain = 0
KHO1 181837Z 32007KT 22/M06 A2999 RMK A01 T02151061  RH  015%=      5-min Rain = 0
KHO1 181838Z 31009KT 21/M06 A2999 RMK A01 T02141057  RH  016%=      5-min Rain = 0
KHO1 181839Z 31009KT 22/M06 A2999 RMK A01 T02151058  RH  016%=      5-min Rain = 0
KHO1 181840Z 32008KT 22/M05 A2999 RMK A01 T02161053  RH  016%=      5-min Rain = 0
KHO1 181841Z 32010KT 22/M06 A2999 RMK A01 T02171061  RH  015%=      5-min Rain = 0
KHO1 181842Z 34011KT 22/M06 A2999 RMK A01 T02171060  RH  015%=      5-min Rain = 0
KHO1 181843Z 34008KT 22/M06 A2999 RMK A01 T02161061  RH  015%=      5-min Rain = 0
KHO1 181844Z 34008G13KT 22/M06 A2999 RMK A01 T02151061  RH  015%=      5-min Rain = 0
KHO1 181845Z 32010KT 22/M06 A2999 RMK A01 T02161056  RH  016%=      5-min Rain = 0
KHO1 181846Z 33012KT 22/M06 A2999 RMK A01 T02171060  RH  015%=      5-min Rain = 0
KHO1 181847Z 33010KT 22/M06 A2999 RMK A01 T02161059  RH  015%=      5-min Rain = 0
KHO1 181848Z 33011KT 22/M06 A2999 RMK A01 T02171060  RH  015%=      5-min Rain = 0
KHO1 181849Z 33010KT 22/M06 A2999 RMK A01 T02161064  RH  015%=      5-min Rain = 0
KHO1 181850Z 33008KT 22/M07 A2999 RMK A01 T02151066  RH  015%=      5-min Rain = 0
KHO1 181851Z 35008KT 21/M06 A2998 RMK A01 T02141064  RH  015%=      5-min Rain = 0
KHO1 181852Z 34010KT 21/M06 A2998 RMK A01 T02141058  RH  016%=      5-min Rain = 0
KHO1 181853Z 33010KT 22/M06 A2998 RMK A01 T02161056  RH  016%=      5-min Rain = 0
KHO1 181854Z 31007KT 22/M06 A2998 RMK A01 T02181058  RH  015%=      5-min Rain = 0
KHO1 181855Z 31006KT 22/M05 A2998 RMK A01 T02191050  RH  016%=      5-min Rain = 0
KHO1 181856Z 31006KT 22/M05 A2998 RMK A01 T02221053  RH  015%=      5-min Rain = 0
KHO1 181857Z 31009KT 22/M06 A2998 RMK A01 T02221057  RH  015%=      5-min Rain = 0
KHO1 181858Z 32011KT 22/M06 A2998 RMK A01 T02211060  RH  015%=      5-min Rain = 0
KHO1 181859Z 32011KT 22/M06 A2998 RMK A01 T02191061  RH  015%=      5-min Rain = 0
KHO1 181900Z 32008KT 22/M06 A2998 RMK A01 T02171063  RH  015%=      5-min Rain = 0
KHO1 181901Z 31006KT 22/M06 A2998 RMK A01 T02171059  RH  015%=      5-min Rain = 0
KHO1 181902Z 32009KT 22/M06 A2998 RMK A01 T02181060  RH  015%=      5-min Rain = 0
KHO1 181903Z 33008KT 22/M06 A2998 RMK A01 T02181058  RH  015%=      5-min Rain = 0
KHO1 181904Z 31010KT 22/M06 A2998 RMK A01 T02201056  RH  015%=      5-min Rain = 0
KHO1 181905Z 33008KT 22/M06 A2998 RMK A01 T02211059  RH  015%=      5-min Rain = 0
KHO1 181906Z 33008KT 22/M06 A2998 RMK A01 T02201060  RH  015%=      5-min Rain = 0
KHO1 181907Z 33008KT 22/M06 A2998 RMK A01 T02191061  RH  015%=      5-min Rain = 0
KHO1 181908Z 33009KT 22/M06 A2998 RMK A01 T02191057  RH  015%=      5-min Rain = 0
KHO1 181909Z 33009KT 22/M06 A2998 RMK A01 T02211058  RH  015%=      5-min Rain = 0
KHO1 181910Z 34010KT 22/M06 A2998 RMK A01 T02221059  RH  015%=      5-min Rain = 0
KHO1 181911Z 33008KT 22/M06 A2998 RMK A01 T02221061  RH  015%=      5-min Rain = 0
KHO1 181912Z 34008KT 22/M06 A2998 RMK A01 T02211062  RH  014%=      5-min Rain = 0
KHO1 181913Z 34010KT 22/M06 A2998 RMK A01 T02201060  RH  015%=      5-min Rain = 0
KHO1 181914Z 34011KT 22/M06 A2998 RMK A01 T02201062  RH  015%=      5-min Rain = 0
KHO1 181915Z 34010KT 22/M06 A2998 RMK A01 T02201063  RH  014%=      5-min Rain = 0
KHO1 181916Z 34009KT 22/M06 A2998 RMK A01 T02191062  RH  015%=      5-min Rain = 0
KHO1 181917Z 32007KT 22/M06 A2998 RMK A01 T02191058  RH  015%=      5-min Rain = 0
KHO1 181918Z 32006KT 22/M06 A2998 RMK A01 T02211062  RH  014%=      5-min Rain = 0
KHO1 181919Z 33008G13KT 22/M06 A2998 RMK A01 T02211058  RH  015%=      5-min Rain = 0
KHO1 181920Z 35010KT 22/M06 A2997 RMK A01 T02221059  RH  015%=      5-min Rain = 0
KHO1 181921Z 33007KT 22/M06 A2997 RMK A01 T02211060  RH  015%=      5-min Rain = 0
KHO1 181922Z 32007KT 22/M06 A2997 RMK A01 T02221057  RH  015%=      5-min Rain = 0
KHO1 181923Z 32007KT 22/M06 A2997 RMK A01 T02231058  RH  015%=      5-min Rain = 0
KHO1 181924Z 32005KT 23/M06 A2997 RMK A01 T02251056  RH  015%=      5-min Rain = 0
KHO1 181925Z 35008KT 23/M05 A2997 RMK A01 T02271053  RH  015%=      5-min Rain = 0
KHO1 181926Z 36008KT 23/M06 A2997 RMK A01 T02261059  RH  014%=      5-min Rain = 0
KHO1 181927Z 35006KT 22/M06 A2997 RMK A01 T02241059  RH  015%=      5-min Rain = 0
KHO1 181928Z 34008KT 22/M06 A2997 RMK A01 T02231058  RH  015%=      5-min Rain = 0
KHO1 181929Z 33009KT 22/M06 A2997 RMK A01 T02231058  RH  015%=      5-min Rain = 0
KHO1 181930Z 35007KT 22/M06 A2997 RMK A01 T02231060  RH  015%=      5-min Rain = 0
KHO1 181931Z 34005KT 22/M06 A2997 RMK A01 T02221063  RH  014%=      5-min Rain = 0
KHO1 181932Z 31004KT 22/M06 A2997 RMK A01 T02221056  RH  015%=      5-min Rain = 0
KHO1 181933Z 30006KT 23/M05 A2997 RMK A01 T02251052  RH  015%=      5-min Rain = 0
KHO1 181934Z 32007KT 23/M06 A2997 RMK A01 T02271056  RH  015%=      5-min Rain = 0
KHO1 181935Z 33007KT 23/M06 A2997 RMK A01 T02261058  RH  014%=      5-min Rain = 0
KHO1 181936Z 34008KT 23/M06 A2997 RMK A01 T02261059  RH  014%=      5-min Rain = 0
KHO1 181937Z 33007KT 23/M06 A2997 RMK A01 T02251060  RH  014%=      5-min Rain = 0
KHO1 181938Z 33005KT 22/M06 A2997 RMK A01 T02241061  RH  014%=      5-min Rain = 0
KHO1 181939Z 34005KT 22/M06 A2996 RMK A01 T02241061  RH  014%=      5-min Rain = 0
KHO1 181940Z 35005KT 22/M06 A2996 RMK A01 T02231061  RH  014%=      5-min Rain = 0
KHO1 181941Z 35005KT 22/M06 A2996 RMK A01 T02231057  RH  015%=      5-min Rain = 0
KHO1 181942Z 33004KT 23/M05 A2996 RMK A01 T02261049  RH  015%=      5-min Rain = 0
KHO1 181943Z 32006KT 23/M06 A2996 RMK A01 T02301056  RH  014%=      5-min Rain = 0
KHO1 181944Z 34008KT 23/M06 A2996 RMK A01 T02301056  RH  014%=      5-min Rain = 0
KHO1 181945Z 35010KT 23/M06 A2996 RMK A01 T02301058  RH  014%=      5-min Rain = 0
KHO1 181946Z 34011KT 23/M06 A2996 RMK A01 T02301059  RH  014%=      5-min Rain = 0
KHO1 181947Z 35009KT 23/M06 A2996 RMK A01 T02281062  RH  014%=      5-min Rain = 0
KHO1 181948Z 36007KT 23/M06 A2996 RMK A01 T02261061  RH  014%=      5-min Rain = 0
KHO1 181949Z 34005KT 23/M06 A2996 RMK A01 T02261062  RH  014%=      5-min Rain = 0
KHO1 181950Z 33005KT 23/M06 A2996 RMK A01 T02271061  RH  014%=      5-min Rain = 0
KHO1 181951Z 33005KT 23/M06 A2996 RMK A01 T02271060  RH  014%=      5-min Rain = 0
KHO1 181952Z 00007KT 23/M06 A2996 RMK A01 T02281059  RH  014%=      5-min Rain = 0
KHO1 181953Z 01007KT 23/M06 A2996 RMK A01 T02291060  RH  014%=      5-min Rain = 0
KHO1 181954Z 36010KT 23/M06 A2996 RMK A01 T02301059  RH  014%=      5-min Rain = 0
KHO1 181955Z 35010KT 23/M06 A2996 RMK A01 T02291062  RH  014%=      5-min Rain = 0
KHO1 181956Z 36012KT 23/M06 A2996 RMK A01 T02281061  RH  014%=      5-min Rain = 0
KHO1 181957Z 00009KT 23/M06 A2996 RMK A01 T02271060  RH  014%=      5-min Rain = 0
KHO1 181958Z 35010KT 23/M06 A2996 RMK A01 T02281063  RH  014%=      5-min Rain = 0
KHO1 181959Z 01008KT 23/M06 A2996 RMK A01 T02271063  RH  014%=      5-min Rain = 0
KHO1 182000Z 00007KT 23/M06 A2996 RMK A01 T02271062  RH  014%=      5-min Rain = 0
KHO1 182001Z 35006KT 23/M06 A2996 RMK A01 T02281062  RH  014%=      5-min Rain = 0
KHO1 182002Z 35005KT 23/M06 A2996 RMK A01 T02291061  RH  014%=      5-min Rain = 0
KHO1 182003Z 36006KT 23/M06 A2996 RMK A01 T02311058  RH  014%=      5-min Rain = 0
KHO1 182004Z 00008KT 23/M06 A2996 RMK A01 T02311059  RH  014%=      5-min Rain = 0
KHO1 182005Z 34007KT 23/M06 A2996 RMK A01 T02311058  RH  014%=      5-min Rain = 0
KHO1 182006Z 32007KT 23/M06 A2996 RMK A01 T02321056  RH  014%=      5-min Rain = 0
KHO1 182007Z 33009KT 23/M06 A2996 RMK A01 T02321061  RH  014%=      5-min Rain = 0
KHO1 182008Z 33009KT 23/M06 A2996 RMK A01 T02311060  RH  014%=      5-min Rain = 0
KHO1 182009Z 35008KT 23/M06 A2996 RMK A01 T02321058  RH  014%=      5-min Rain = 0
KHO1 182010Z 35007KT 23/M06 A2996 RMK A01 T02321060  RH  014%=      5-min Rain = 0
KHO1 182011Z 35005KT 23/M06 A2996 RMK A01 T02321059  RH  014%=      5-min Rain = 0
KHO1 182012Z 34004KT 23/M06 A2996 RMK A01 T02331055  RH  014%=      5-min Rain = 0
KHO1 182013Z 35009KT 23/M06 A2995 RMK A01 T02341059  RH  014%=      5-min Rain = 0
KHO1 182014Z 36010KT 23/M06 A2995 RMK A01 T02341058  RH  014%=      5-min Rain = 0
KHO1 182015Z 00008KT 23/M06 A2995 RMK A01 T02341060  RH  014%=      5-min Rain = 0
KHO1 182016Z 00006KT 23/M06 A2995 RMK A01 T02341058  RH  014%=      5-min Rain = 0
KHO1 182017Z 01008KT 23/M06 A2995 RMK A01 T02341061  RH  014%=      5-min Rain = 0
KHO1 182018Z 01007KT 23/M06 A2995 RMK A01 T02331059  RH  014%=      5-min Rain = 0
KHO1 182019Z 03007KT 24/M06 A2995 RMK A01 T02351056  RH  014%=      5-min Rain = 0
KHO1 182020Z 02009KT 24/M06 A2995 RMK A01 T02371057  RH  014%=      5-min Rain = 0
KHO1 182021Z 36009KT 24/M06 A2995 RMK A01 T02371057  RH  014%=      5-min Rain = 0
KHO1 182022Z 35006KT 24/M06 A2995 RMK A01 T02361059  RH  014%=      5-min Rain = 0
KHO1 182023Z 01006KT 23/M06 A2995 RMK A01 T02341058  RH  014%=      5-min Rain = 0
KHO1 182024Z 02008KT 24/M06 A2995 RMK A01 T02351057  RH  014%=      5-min Rain = 0
KHO1 182025Z 36009KT 24/M06 A2995 RMK A01 T02351058  RH  014%=      5-min Rain = 0
KHO1 182026Z 34007KT 23/M06 A2995 RMK A01 T02341059  RH  014%=      5-min Rain = 0
KHO1 182027Z 34006KT 23/M06 A2995 RMK A01 T02341058  RH  014%=      5-min Rain = 0
KHO1 182028Z 35008KT 24/M06 A2995 RMK A01 T02351060  RH  014%=      5-min Rain = 0
KHO1 182029Z 36007KT 23/M06 A2995 RMK A01 T02341058  RH  014%=      5-min Rain = 0
KHO1 182030Z 01007KT 24/M06 A2994 RMK A01 T02351056  RH  014%=      5-min Rain = 0
KHO1 182031Z 01006KT 24/M06 A2995 RMK A01 T02361058  RH  014%=      5-min Rain = 0
KHO1 182032Z 01005KT 24/M06 A2995 RMK A01 T02351060  RH  013%=      5-min Rain = 0
KHO1 182033Z 33005KT 24/M06 A2995 RMK A01 T02351058  RH  014%=      5-min Rain = 0
KHO1 182034Z 01004KT 24/M06 A2995 RMK A01 T02361056  RH  014%=      5-min Rain = 0
KHO1 182035Z 36005KT 24/M06 A2995 RMK A01 T02371057  RH  014%=      5-min Rain = 0
KHO1 182036Z 35003KT 24/M05 A2995 RMK A01 T02381054  RH  014%=      5-min Rain = 0
KHO1 182037Z 36005KT 24/M05 A2994 RMK A01 T02401054  RH  014%=      5-min Rain = 0
KHO1 182038Z 34007KT 24/M06 A2994 RMK A01 T02401056  RH  014%=      5-min Rain = 0
KHO1 182039Z 35006KT 24/M06 A2994 RMK A01 T02391056  RH  014%=      5-min Rain = 0
KHO1 182040Z 00009KT 24/M06 A2994 RMK A01 T02381057  RH  014%=      5-min Rain = 0
KHO1 182041Z 00010KT 24/M06 A2994 RMK A01 T02381057  RH  014%=      5-min Rain = 0
KHO1 182042Z 00009KT 24/M06 A2994 RMK A01 T02371059  RH  013%=      5-min Rain = 0
KHO1 182043Z 01007KT 24/M06 A2994 RMK A01 T02371058  RH  014%=      5-min Rain = 0
KHO1 182044Z 00007KT 24/M06 A2994 RMK A01 T02381059  RH  013%=      5-min Rain = 0
KHO1 182045Z 00006KT 24/M06 A2994 RMK A01 T02381059  RH  013%=      5-min Rain = 0
KHO1 182046Z 34005KT 24/M06 A2994 RMK A01 T02381058  RH  013%=      5-min Rain = 0
KHO1 182047Z 33006KT 24/M06 A2994 RMK A01 T02391057  RH  014%=      5-min Rain = 0
KHO1 182048Z 33008KT 24/M06 A2994 RMK A01 T02401056  RH  014%=      5-min Rain = 0
KHO1 182049Z 33007KT 24/M06 A2994 RMK A01 T02401056  RH  013%=      5-min Rain = 0
KHO1 182050Z 34006KT 24/M06 A2994 RMK A01 T02401056  RH  014%=      5-min Rain = 0
KHO1 182051Z 35009KT 24/M06 A2994 RMK A01 T02411055  RH  014%=      5-min Rain = 0
KHO1 182052Z 34009KT 24/M06 A2994 RMK A01 T02401058  RH  013%=      5-min Rain = 0
KHO1 182053Z 36009KT 24/M06 A2994 RMK A01 T02391058  RH  013%=      5-min Rain = 0
KHO1 182054Z 01009KT 24/M06 A2994 RMK A01 T02401057  RH  013%=      5-min Rain = 0
KHO1 182055Z 01009KT 24/M06 A2994 RMK A01 T02411060  RH  013%=      5-min Rain = 0
KHO1 182056Z 01010KT 24/M06 A2994 RMK A01 T02411060  RH  013%=      5-min Rain = 0
KHO1 182057Z 00009KT 24/M06 A2994 RMK A01 T02411062  RH  013%=      5-min Rain = 0
KHO1 182058Z 36008KT 24/M06 A2994 RMK A01 T02411060  RH  013%=      5-min Rain = 0
KHO1 182059Z 35008KT 24/M06 A2994 RMK A01 T02421060  RH  013%=      5-min Rain = 0
KHO1 182100Z 00008KT 24/M06 A2994 RMK A01 T02411060  RH  013%=      5-min Rain = 0
KHO1 182101Z 00008KT 24/M06 A2994 RMK A01 T02401060  RH  013%=      5-min Rain = 0
KHO1 182102Z 35006KT 24/M06 A2994 RMK A01 T02411060  RH  013%=      5-min Rain = 0
KHO1 182103Z 35005KT 24/M06 A2994 RMK A01 T02421062  RH  013%=      5-min Rain = 0
KHO1 182104Z 34004KT 24/M06 A2994 RMK A01 T02421063  RH  013%=      5-min Rain = 0
KHO1 182105Z 35006KT 24/M06 A2994 RMK A01 T02411062  RH  013%=      5-min Rain = 0
KHO1 182106Z 35010KT 24/M06 A2994 RMK A01 T02401062  RH  013%=      5-min Rain = 0
KHO1 182107Z 35007KT 24/M06 A2994 RMK A01 T02391063  RH  013%=      5-min Rain = 0
KHO1 182108Z 34008KT 24/M06 A2994 RMK A01 T02391059  RH  013%=      5-min Rain = 0
KHO1 182109Z 35009KT 24/M06 A2994 RMK A01 T02401060  RH  013%=      5-min Rain = 0
KHO1 182110Z 36008KT 24/M06 A2994 RMK A01 T02391060  RH  013%=      5-min Rain = 0
KHO1 182111Z 01007KT 24/M06 A2994 RMK A01 T02391060  RH  013%=      5-min Rain = 0
KHO1 182112Z 02006KT 24/M06 A2994 RMK A01 T02401059  RH  013%=      5-min Rain = 0
KHO1 182113Z 01005KT 24/M06 A2994 RMK A01 T02421058  RH  013%=      5-min Rain = 0
KHO1 182114Z 36005KT 24/M06 A2994 RMK A01 T02431058  RH  013%=      5-min Rain = 0
KHO1 182115Z 00004KT 24/M06 A2994 RMK A01 T02431060  RH  013%=      5-min Rain = 0
KHO1 182116Z 00005KT 24/M06 A2994 RMK A01 T02421056  RH  013%=      5-min Rain = 0
KHO1 182117Z 35004KT 24/M06 A2994 RMK A01 T02431058  RH  013%=      5-min Rain = 0
KHO1 182118Z 36004KT 24/M06 A2994 RMK A01 T02431057  RH  013%=      5-min Rain = 0
KHO1 182119Z 03007KT 24/M06 A2994 RMK A01 T02441057  RH  013%=      5-min Rain = 0
KHO1 182120Z 03006KT 24/M06 A2994 RMK A01 T02441059  RH  013%=      5-min Rain = 0
KHO1 182121Z 04003KT 24/M06 A2994 RMK A01 T02431061  RH  013%=      5-min Rain = 0
KHO1 182122Z 04004KT 24/M06 A2994 RMK A01 T02431059  RH  013%=      5-min Rain = 0
KHO1 182123Z 35005KT 24/M06 A2994 RMK A01 T02441057  RH  013%=      5-min Rain = 0
KHO1 182124Z 35006KT 24/M06 A2994 RMK A01 T02431059  RH  013%=      5-min Rain = 0
KHO1 182125Z 35005KT 24/M05 A2994 RMK A01 T02421054  RH  014%=      5-min Rain = 0
KHO1 182126Z 34006KT 24/M06 A2994 RMK A01 T02431055  RH  013%=      5-min Rain = 0
KHO1 182127Z 35004KT 24/M06 A2994 RMK A01 T02431059  RH  013%=      5-min Rain = 0
KHO1 182128Z 34004KT 24/M06 A2994 RMK A01 T02421057  RH  013%=      5-min Rain = 0
KHO1 182129Z 34007KT 24/M05 A2994 RMK A01 T02431052  RH  014%=      5-min Rain = 0
KHO1 182130Z 00007KT 24/M06 A2994 RMK A01 T02441056  RH  013%=      5-min Rain = 0
KHO1 182131Z 00005KT 24/M06 A2994 RMK A01 T02431059  RH  013%=      5-min Rain = 0
KHO1 182132Z 01005KT 24/M06 A2994 RMK A01 T02421056  RH  013%=      5-min Rain = 0
KHO1 182133Z 01006KT 24/M05 A2994 RMK A01 T02441054  RH  013%=      5-min Rain = 0
KHO1 182134Z 36010KT 25/M06 A2994 RMK A01 T02451056  RH  013%=      5-min Rain = 0
KHO1 182135Z 01008KT 24/M06 A2994 RMK A01 T02431058  RH  013%=      5-min Rain = 0
KHO1 182136Z 01007KT 24/M06 A2994 RMK A01 T02421056  RH  013%=      5-min Rain = 0
KHO1 182137Z 01006KT 24/M06 A2994 RMK A01 T02431055  RH  013%=      5-min Rain = 0
KHO1 182138Z 35006KT 24/M05 A2994 RMK A01 T02431053  RH  014%=      5-min Rain = 0
KHO1 182139Z 35007KT 24/M06 A2994 RMK A01 T02441056  RH  013%=      5-min Rain = 0
KHO1 182140Z 34006KT 24/M06 A2994 RMK A01 T02431057  RH  013%=      5-min Rain = 0
KHO1 182141Z 34006KT 24/M06 A2994 RMK A01 T02421058  RH  013%=      5-min Rain = 0
KHO1 182142Z 35005KT 24/M06 A2994 RMK A01 T02421056  RH  013%=      5-min Rain = 0
KHO1 182143Z 35004KT 24/M06 A2994 RMK A01 T02411056  RH  013%=      5-min Rain = 0
KHO1 182144Z 33004KT 24/M06 A2994 RMK A01 T02421056  RH  013%=      5-min Rain = 0
KHO1 182145Z 34005KT 24/M05 A2994 RMK A01 T02431053  RH  014%=      5-min Rain = 0
KHO1 182146Z 34004KT 24/M05 A2994 RMK A01 T02441054  RH  013%=      5-min Rain = 0
KHO1 182147Z 33007KT 24/M05 A2994 RMK A01 T02441053  RH  013%=      5-min Rain = 0
KHO1 182148Z 34007KT 24/M05 A2994 RMK A01 T02431053  RH  014%=      5-min Rain = 0
KHO1 182149Z 33006KT 24/M05 A2994 RMK A01 T02441050  RH  014%=      5-min Rain = 0
KHO1 182150Z 32007KT 24/M05 A2994 RMK A01 T02441051  RH  014%=      5-min Rain = 0
KHO1 182151Z 32006KT 24/M06 A2995 RMK A01 T02431055  RH  013%=      5-min Rain = 0
KHO1 182152Z 34007KT 24/M05 A2995 RMK A01 T02421054  RH  013%=      5-min Rain = 0
KHO1 182153Z 35007KT 24/M06 A2995 RMK A01 T02421056  RH  013%=      5-min Rain = 0
KHO1 182154Z 34006KT 24/M05 A2995 RMK A01 T02421052  RH  014%=      5-min Rain = 0
KHO1 182155Z 33006KT 24/M05 A2995 RMK A01 T02431053  RH  014%=      5-min Rain = 0
KHO1 182156Z 34007KT 24/M05 A2995 RMK A01 T02431054  RH  013%=      5-min Rain = 0
KHO1 182157Z 35007KT 24/M06 A2994 RMK A01 T02431056  RH  013%=      5-min Rain = 0
KHO1 182158Z 34007KT 24/M06 A2995 RMK A01 T02421056  RH  013%=      5-min Rain = 0
KHO1 182159Z 35008KT 24/M06 A2994 RMK A01 T02421057  RH  013%=      5-min Rain = 0
KHO1 182200Z 35007KT 24/M06 A2995 RMK A01 T02411058  RH  013%=      5-min Rain = 0
KHO1 182201Z 35006KT 24/M06 A2994 RMK A01 T02411057  RH  013%=      5-min Rain = 0
KHO1 182202Z 34006KT 24/M06 A2995 RMK A01 T02421055  RH  013%=      5-min Rain = 0
KHO1 182203Z 33007KT 24/M06 A2995 RMK A01 T02421055  RH  013%=      5-min Rain = 0
KHO1 182204Z 34006KT 24/M05 A2995 RMK A01 T02431053  RH  014%=      5-min Rain = 0
KHO1 182205Z 35007KT 24/M05 A2995 RMK A01 T02431054  RH  013%=      5-min Rain = 0
KHO1 182206Z 34006KT 24/M06 A2995 RMK A01 T02431055  RH  013%=      5-min Rain = 0
KHO1 182207Z 33008KT 24/M06 A2995 RMK A01 T02431058  RH  013%=      5-min Rain = 0
KHO1 182208Z 33006KT 24/M06 A2995 RMK A01 T02431056  RH  013%=      5-min Rain = 0
KHO1 182209Z 34007KT 24/M06 A2995 RMK A01 T02431055  RH  013%=      5-min Rain = 0
KHO1 182210Z 35007KT 24/M06 A2995 RMK A01 T02431056  RH  013%=      5-min Rain = 0
KHO1 182211Z 35008KT 24/M06 A2995 RMK A01 T02421058  RH  013%=      5-min Rain = 0
KHO1 182212Z 00008KT 24/M06 A2995 RMK A01 T02411058  RH  013%=      5-min Rain = 0
KHO1 182213Z 00008KT 24/M06 A2995 RMK A01 T02411057  RH  013%=      5-min Rain = 0
KHO1 182214Z 00007KT 24/M06 A2995 RMK A01 T02421058  RH  013%=      5-min Rain = 0
KHO1 182215Z 35006KT 24/M06 A2995 RMK A01 T02421056  RH  013%=      5-min Rain = 0
KHO1 182216Z 35006KT 24/M06 A2995 RMK A01 T02421058  RH  013%=      5-min Rain = 0
KHO1 182217Z 36005KT 24/M06 A2995 RMK A01 T02421057  RH  013%=      5-min Rain = 0
KHO1 182218Z 01006KT 24/M06 A2995 RMK A01 T02421057  RH  013%=      5-min Rain = 0
KHO1 182219Z 01006KT 24/M06 A2995 RMK A01 T02431057  RH  013%=      5-min Rain = 0
KHO1 182220Z 03005KT 24/M06 A2995 RMK A01 T02431055  RH  013%=      5-min Rain = 0
KHO1 182221Z 04009KT 24/M06 A2995 RMK A01 T02441055  RH  013%=      5-min Rain = 0
KHO1 182222Z 03008KT 24/M06 A2995 RMK A01 T02441057  RH  013%=      5-min Rain = 0
KHO1 182223Z 03008KT 24/M06 A2995 RMK A01 T02431056  RH  013%=      5-min Rain = 0
KHO1 182224Z 02007KT 24/M06 A2995 RMK A01 T02431056  RH  013%=      5-min Rain = 0
KHO1 182225Z 03006KT 24/M06 A2995 RMK A01 T02431055  RH  013%=      5-min Rain = 0
KHO1 182226Z 03007KT 24/M05 A2995 RMK A01 T02441053  RH  014%=      5-min Rain = 0
KHO1 182227Z 03008KT 24/M05 A2995 RMK A01 T02441054  RH  013%=      5-min Rain = 0
KHO1 182228Z 02009KT 24/M06 A2995 RMK A01 T02431056  RH  013%=      5-min Rain = 0
KHO1 182229Z 03009KT 24/M06 A2995 RMK A01 T02421055  RH  013%=      5-min Rain = 0
KHO1 182230Z 03009KT 24/M06 A2995 RMK A01 T02411056  RH  013%=      5-min Rain = 0
KHO1 182231Z 02006KT 24/M06 A2995 RMK A01 T02411055  RH  014%=      5-min Rain = 0
KHO1 182232Z 02008KT 24/M05 A2995 RMK A01 T02411054  RH  014%=      5-min Rain = 0
KHO1 182233Z 02009KT 24/M05 A2995 RMK A01 T02411053  RH  014%=      5-min Rain = 0
KHO1 182234Z 02008KT 24/M05 A2995 RMK A01 T02411054  RH  014%=      5-min Rain = 0
KHO1 182235Z 02008KT 24/M05 A2995 RMK A01 T02411054  RH  014%=      5-min Rain = 0
KHO1 182236Z 03007KT 24/M05 A2995 RMK A01 T02401054  RH  014%=      5-min Rain = 0
KHO1 182237Z 03007KT 24/M05 A2995 RMK A01 T02411054  RH  014%=      5-min Rain = 0
KHO1 182238Z 03006KT 24/M06 A2995 RMK A01 T02411055  RH  014%=      5-min Rain = 0
KHO1 182239Z 02005KT 24/M05 A2995 RMK A01 T02411053  RH  014%=      5-min Rain = 0
KHO1 182240Z 02006KT 24/M05 A2995 RMK A01 T02411054  RH  014%=      5-min Rain = 0
KHO1 182241Z 01005KT 24/M05 A2995 RMK A01 T02411051  RH  014%=      5-min Rain = 0
KHO1 182242Z 01007KT 24/M05 A2995 RMK A01 T02411052  RH  014%=      5-min Rain = 0
KHO1 182243Z 02007KT 24/M05 A2995 RMK A01 T02401053  RH  014%=      5-min Rain = 0
KHO1 182244Z 01007KT 24/M05 A2995 RMK A01 T02401052  RH  014%=      5-min Rain = 0
KHO1 182245Z 01006KT 24/M05 A2995 RMK A01 T02391053  RH  014%=      5-min Rain = 0
KHO1 182246Z 02006KT 24/M05 A2995 RMK A01 T02391053  RH  014%=      5-min Rain = 0
KHO1 182247Z 01004KT 24/M05 A2995 RMK A01 T02391052  RH  014%=      5-min Rain = 0
KHO1 182248Z 02005KT 24/M05 A2995 RMK A01 T02401054  RH  014%=      5-min Rain = 0
KHO1 182249Z 02005KT 24/M05 A2995 RMK A01 T02401053  RH  014%=      5-min Rain = 0
KHO1 182250Z 03004KT 24/M05 A2995 RMK A01 T02401053  RH  014%=      5-min Rain = 0
KHO1 182251Z 02003KT 24/M05 A2995 RMK A01 T02401052  RH  014%=      5-min Rain = 0
KHO1 182252Z 01003KT 24/M05 A2995 RMK A01 T02401049  RH  014%=      5-min Rain = 0
KHO1 182253Z 01004KT 24/M05 A2995 RMK A01 T02411047  RH  014%=      5-min Rain = 0
KHO1 182254Z 02006KT 24/M05 A2995 RMK A01 T02411049  RH  014%=      5-min Rain = 0
KHO1 182255Z 01005KT 24/M05 A2995 RMK A01 T02401052  RH  014%=      5-min Rain = 0
KHO1 182256Z 03004KT 24/M05 A2995 RMK A01 T02391051  RH  014%=      5-min Rain = 0
KHO1 182257Z 02004KT 24/M05 A2995 RMK A01 T02391051  RH  014%=      5-min Rain = 0
KHO1 182258Z 03005KT 24/M05 A2995 RMK A01 T02381049  RH  014%=      5-min Rain = 0
KHO1 182259Z 02006KT 24/M05 A2995 RMK A01 T02381050  RH  014%=      5-min Rain = 0
KHO1 182300Z 02006KT 24/M05 A2995 RMK A01 T02371051  RH  014%=      5-min Rain = 0
KHO1 182301Z 02004KT 24/M05 A2995 RMK A01 T02371049  RH  015%=      5-min Rain = 0
KHO1 182302Z 02006KT 24/M05 A2995 RMK A01 T02361050  RH  014%=      5-min Rain = 0
KHO1 182303Z 03005KT 24/M05 A2995 RMK A01 T02361051  RH  014%=      5-min Rain = 0
KHO1 182304Z 02005KT 24/M05 A2995 RMK A01 T02351049  RH  015%=      5-min Rain = 0
KHO1 182305Z 02005KT 24/M05 A2995 RMK A01 T02351049  RH  015%=      5-min Rain = 0
KHO1 182306Z 02005KT 23/M05 A2995 RMK A01 T02341048  RH  015%=      5-min Rain = 0
KHO1 182307Z 02005KT 23/M05 A2995 RMK A01 T02341048  RH  015%=      5-min Rain = 0
KHO1 182308Z 02005KT 23/M05 A2995 RMK A01 T02331048  RH  015%=      5-min Rain = 0
KHO1 182309Z 02004KT 23/M05 A2995 RMK A01 T02331045  RH  015%=      5-min Rain = 0
KHO1 182310Z 02004KT 23/M04 A2995 RMK A01 T02321042  RH  016%=      5-min Rain = 0
KHO1 182311Z 02004KT 23/M04 A2995 RMK A01 T02321040  RH  016%=      5-min Rain = 0
KHO1 182312Z 02004KT 23/M04 A2995 RMK A01 T02311040  RH  016%=      5-min Rain = 0
KHO1 182313Z 02004KT 23/M04 A2996 RMK A01 T02311041  RH  016%=      5-min Rain = 0
KHO1 182314Z 02004KT 23/M04 A2996 RMK A01 T02301041  RH  016%=      5-min Rain = 0
KHO1 182315Z 02004KT 23/M04 A2996 RMK A01 T02301040  RH  016%=      5-min Rain = 0
KHO1 182316Z 01003KT 23/M04 A2996 RMK A01 T02291038  RH  017%=      5-min Rain = 0
KHO1 182317Z 02004KT 23/M04 A2996 RMK A01 T02281039  RH  016%=      5-min Rain = 0
KHO1 182318Z 01003KT 23/M04 A2996 RMK A01 T02281039  RH  016%=      5-min Rain = 0
KHO1 182319Z 02004KT 23/M04 A2996 RMK A01 T02281041  RH  016%=      5-min Rain = 0
KHO1 182320Z 01004KT 23/M04 A2996 RMK A01 T02281040  RH  016%=      5-min Rain = 0
KHO1 182321Z 01003KT 23/M04 A2996 RMK A01 T02271038  RH  017%=      5-min Rain = 0
KHO1 182322Z 01003KT 23/M04 A2996 RMK A01 T02261039  RH  017%=      5-min Rain = 0
KHO1 182323Z 01003KT 23/M04 A2996 RMK A01 T02261038  RH  017%=      5-min Rain = 0
KHO1 182324Z 01003KT 23/M04 A2996 RMK A01 T02251037  RH  017%=      5-min Rain = 0
KHO1 182325Z 02003KT 22/M04 A2996 RMK A01 T02241037  RH  017%=      5-min Rain = 0
KHO1 182326Z 01004KT 22/M04 A2996 RMK A01 T02231037  RH  017%=      5-min Rain = 0
KHO1 182327Z 02004KT 22/M04 A2996 RMK A01 T02231037  RH  017%=      5-min Rain = 0
KHO1 182328Z 01003KT 22/M04 A2996 RMK A01 T02221037  RH  017%=      5-min Rain = 0
KHO1 182329Z 01003KT 22/M04 A2996 RMK A01 T02211035  RH  018%=      5-min Rain = 0
KHO1 182330Z 01004KT 22/M03 A2996 RMK A01 T02201034  RH  018%=      5-min Rain = 0
KHO1 182331Z 01003KT 22/M03 A2996 RMK A01 T02181034  RH  018%=      5-min Rain = 0
KHO1 182332Z 01004KT 22/M03 A2996 RMK A01 T02181034  RH  018%=      5-min Rain = 0
KHO1 182333Z 02004KT 22/M03 A2996 RMK A01 T02171033  RH  018%=      5-min Rain = 0
KHO1 182334Z 02004KT 22/M03 A2996 RMK A01 T02171033  RH  019%=      5-min Rain = 0
KHO1 182335Z 01003KT 22/M03 A2996 RMK A01 T02161033  RH  018%=      5-min Rain = 0
KHO1 182336Z 01003KT 22/M03 A2996 RMK A01 T02161034  RH  019%=      5-min Rain = 0
KHO1 182337Z 01003KT 22/M03 A2996 RMK A01 T02151033  RH  019%=      5-min Rain = 0
KHO1 182338Z 01002KT 22/M03 A2996 RMK A01 T02151032  RH  019%=      5-min Rain = 0
KHO1 182339Z 01003KT 21/M03 A2996 RMK A01 T02141032  RH  019%=      5-min Rain = 0
KHO1 182340Z 01003KT 21/M03 A2996 RMK A01 T02131032  RH  019%=      5-min Rain = 0
KHO1 182341Z 36002KT 21/M03 A2996 RMK A01 T02121031  RH  019%=      5-min Rain = 0
KHO1 182342Z 00002KT 21/M03 A2996 RMK A01 T02111030  RH  020%=      5-min Rain = 0
KHO1 182343Z 00003KT 21/M03 A2996 RMK A01 T02101029  RH  020%=      5-min Rain = 0
KHO1 182344Z 01003KT 21/M03 A2996 RMK A01 T02081029  RH  020%=      5-min Rain = 0
KHO1 182345Z 01003KT 21/M03 A2996 RMK A01 T02071029  RH  020%=      5-min Rain = 0
KHO1 182346Z 00003KT 21/M03 A2996 RMK A01 T02061029  RH  020%=      5-min Rain = 0
KHO1 182347Z 01003KT 21/M03 A2996 RMK A01 T02061029  RH  020%=      5-min Rain = 0
KHO1 182348Z 00002KT 21/M03 A2996 RMK A01 T02051029  RH  020%=      5-min Rain = 0
KHO1 182349Z 00003KT 21/M03 A2996 RMK A01 T02051029  RH  021%=      5-min Rain = 0
KHO1 182350Z 00003KT 20/M03 A2996 RMK A01 T02041028  RH  021%=      5-min Rain = 0
KHO1 182351Z 00003KT 20/M03 A2996 RMK A01 T02031029  RH  021%=      5-min Rain = 0
KHO1 182352Z 00003KT 20/M03 A2996 RMK A01 T02031030  RH  021%=      5-min Rain = 0
KHO1 182353Z 00003KT 20/M03 A2996 RMK A01 T02041029  RH  021%=      5-min Rain = 0
KHO1 182354Z 36003KT 20/M03 A2996 RMK A01 T02041029  RH  021%=      5-min Rain = 0
KHO1 182355Z 35003KT 20/M03 A2996 RMK A01 T02031029  RH  021%=      5-min Rain = 0
KHO1 182356Z 35002KT 20/M03 A2996 RMK A01 T02031031  RH  021%=      5-min Rain = 0
KHO1 182357Z 35002KT 20/M03 A2996 RMK A01 T02021030  RH  021%=      5-min Rain = 0
KHO1 182358Z 35002KT 20/M03 A2996 RMK A01 T02021029  RH  021%=      5-min Rain = 0
KHO1 182359Z 35002KT 20/M03 A2996 RMK A01 T02011027  RH  021%=      5-min Rain = 0
KHO1 190000Z 35002KT 20/M03 A2996 RMK A01 T02001025  RH  022%=      5-min Rain = 0
KHO1 190001Z 35002KT 20/M03 A2996 RMK A01 T01981025  RH  022%=      5-min Rain = 0
KHO1 190002Z 35002KT 20/M03 A2996 RMK A01 T01971025  RH  022%=      5-min Rain = 0
KHO1 190003Z 35002KT 20/M03 A2996 RMK A01 T01961026  RH  022%=      5-min Rain = 0
KHO1 190004Z 35002KT 20/M03 A2996 RMK A01 T01951026  RH  022%=      5-min Rain = 0
KHO1 190005Z 35002KT 19/M03 A2996 RMK A01 T01941026  RH  023%=      5-min Rain = 0
KHO1 190006Z 35002KT 19/M03 A2996 RMK A01 T01931026  RH  023%=      5-min Rain = 0
KHO1 190007Z 35002KT 19/M03 A2996 RMK A01 T01921026  RH  023%=      5-min Rain = 0
KHO1 190008Z 35002KT 19/M03 A2996 RMK A01 T01911025  RH  023%=      5-min Rain = 0
KHO1 190009Z 35002KT 19/M03 A2996 RMK A01 T01901025  RH  023%=      5-min Rain = 0
KHO1 190010Z 00002KT 19/M03 A2996 RMK A01 T01891026  RH  023%=      5-min Rain = 0
KHO1 190011Z 00003KT 19/M03 A2996 RMK A01 T01891025  RH  023%=      5-min Rain = 0
KHO1 190012Z 00003KT 19/M02 A2996 RMK A01 T01881023  RH  024%=      5-min Rain = 0
KHO1 190013Z 00003KT 19/M02 A2996 RMK A01 T01871022  RH  024%=      5-min Rain = 0
KHO1 190014Z 00002KT 19/M02 A2997 RMK A01 T01851021  RH  025%=      5-min Rain = 0
KHO1 190015Z 00002KT 18/M02 A2997 RMK A01 T01841021  RH  025%=      5-min Rain = 0
KHO1 190016Z 00003KT 18/M02 A2997 RMK A01 T01831022  RH  025%=      5-min Rain = 0
KHO1 190017Z 00002KT 18/M02 A2997 RMK A01 T01821023  RH  025%=      5-min Rain = 0
KHO1 190018Z 00002KT 18/M03 A2997 RMK A01 T01821025  RH  024%=      5-min Rain = 0
KHO1 190019Z 36002KT 18/M03 A2997 RMK A01 T01821026  RH  024%=      5-min Rain = 0
KHO1 190020Z 35002KT 18/M03 A2997 RMK A01 T01821026  RH  024%=      5-min Rain = 0
KHO1 190021Z 35002KT 18/M03 A2997 RMK A01 T01831025  RH  024%=      5-min Rain = 0
KHO1 190022Z 35002KT 18/M03 A2997 RMK A01 T01831025  RH  024%=      5-min Rain = 0
KHO1 190023Z 35002KT 18/M03 A2997 RMK A01 T01831025  RH  024%=      5-min Rain = 0
KHO1 190024Z 35002KT 18/M02 A2997 RMK A01 T01821023  RH  025%=      5-min Rain = 0
KHO1 190025Z 35002KT 18/M02 A2997 RMK A01 T01821022  RH  025%=      5-min Rain = 0
KHO1 190026Z 35002KT 18/M02 A2997 RMK A01 T01811019  RH  026%=      5-min Rain = 0
KHO1 190027Z 35002KT 18/M02 A2997 RMK A01 T01811018  RH  026%=      5-min Rain = 0
KHO1 190028Z 35002KT 18/M02 A2997 RMK A01 T01801019  RH  026%=      5-min Rain = 0
KHO1 190029Z 35002KT 18/M02 A2997 RMK A01 T01791019  RH  026%=      5-min Rain = 0
KHO1 190030Z 35003KT 18/M02 A2997 RMK A01 T01781020  RH  026%=      5-min Rain = 0
KHO1 190031Z 35003KT 18/M02 A2997 RMK A01 T01771018  RH  026%=      5-min Rain = 0
KHO1 190032Z 35002KT 18/M02 A2997 RMK A01 T01761018  RH  027%=      5-min Rain = 0
KHO1 190033Z 35002KT 18/M02 A2997 RMK A01 T01751018  RH  027%=      5-min Rain = 0
KHO1 190034Z 34002KT 18/M02 A2997 RMK A01 T01751017  RH  027%=      5-min Rain = 0
KHO1 190035Z 34002KT 17/M02 A2997 RMK A01 T01741015  RH  028%=      5-min Rain = 0
KHO1 190036Z 34002KT 17/M01 A2997 RMK A01 T01731014  RH  028%=      5-min Rain = 0
KHO1 190037Z 34002KT 17/M01 A2997 RMK A01 T01721013  RH  028%=      5-min Rain = 0
KHO1 190038Z 34003KT 17/M01 A2997 RMK A01 T01701012  RH  029%=      5-min Rain = 0
KHO1 190039Z 34003KT 17/M01 A2997 RMK A01 T01681012  RH  029%=      5-min Rain = 0
KHO1 190040Z 34002KT 17/M01 A2997 RMK A01 T01661011  RH  030%=      5-min Rain = 0
KHO1 190041Z 34002KT 16/M01 A2997 RMK A01 T01641011  RH  030%=      5-min Rain = 0
KHO1 190042Z 33002KT 16/M01 A2997 RMK A01 T01621011  RH  031%=      5-min Rain = 0
KHO1 190043Z 33002KT 16/M01 A2997 RMK A01 T01611012  RH  031%=      5-min Rain = 0
KHO1 190044Z 33002KT 16/M01 A2997 RMK A01 T01591012  RH  031%=      5-min Rain = 0
KHO1 190045Z 33002KT 16/M01 A2997 RMK A01 T01591011  RH  031%=      5-min Rain = 0
KHO1 190046Z 33002KT 16/M01 A2997 RMK A01 T01581010  RH  032%=      5-min Rain = 0
KHO1 190047Z 33002KT 16/M01 A2997 RMK A01 T01581009  RH  032%=      5-min Rain = 0
KHO1 190048Z 33002KT 16/M01 A2997 RMK A01 T01571009  RH  032%=      5-min Rain = 0
KHO1 190049Z 33002KT 16/M01 A2997 RMK A01 T01561009  RH  032%=      5-min Rain = 0
KHO1 190050Z 33002KT 16/M01 A2997 RMK A01 T01551008  RH  033%=      5-min Rain = 0
KHO1 190051Z 33002KT 15/M01 A2997 RMK A01 T01541008  RH  033%=      5-min Rain = 0
KHO1 190052Z 33002KT 15/M01 A2997 RMK A01 T01531008  RH  033%=      5-min Rain = 0
KHO1 190053Z 33002KT 15/M01 A2997 RMK A01 T01521008  RH  033%=      5-min Rain = 0
KHO1 190054Z 33002KT 15/M01 A2997 RMK A01 T01511008  RH  034%=      5-min Rain = 0
KHO1 190055Z 33002KT 15/M01 A2997 RMK A01 T01501008  RH  034%=      5-min Rain = 0
KHO1 190056Z 33002KT 15/M01 A2997 RMK A01 T01481007  RH  034%=      5-min Rain = 0
KHO1 190057Z 33002KT 15/M01 A2997 RMK A01 T01471007  RH  035%=      5-min Rain = 0
KHO1 190058Z 33002KT 15/M01 A2997 RMK A01 T01461006  RH  035%=      5-min Rain = 0
KHO1 190059Z 33001KT 14/M00 A2997 RMK A01 T01441004  RH  036%=      5-min Rain = 0
KHO1 190100Z 33002KT 14/M00 A2997 RMK A01 T01431004  RH  036%=      5-min Rain = 0
KHO1 190101Z 33002KT 14/M00 A2997 RMK A01 T01421004  RH  037%=      5-min Rain = 0
KHO1 190102Z 33002KT 14/M00 A2997 RMK A01 T01411004  RH  037%=      5-min Rain = 0
KHO1 190103Z 33002KT 14/M00 A2997 RMK A01 T01401003  RH  037%=      5-min Rain = 0
KHO1 190104Z 33002KT 14/M00 A2997 RMK A01 T01401003  RH  038%=      5-min Rain = 0
KHO1 190105Z 33002KT 14/M00 A2997 RMK A01 T01391001  RH  038%=      5-min Rain = 0
KHO1 190106Z 33002KT 14/M00 A2997 RMK A01 T01391001  RH  038%=      5-min Rain = 0
KHO1 190107Z 33002KT 14/M00 A2997 RMK A01 T01381001  RH  039%=      5-min Rain = 0
KHO1 190108Z 33002KT 14/M00 A2997 RMK A01 T01381001  RH  038%=      5-min Rain = 0
KHO1 190109Z 33002KT 14/M00 A2997 RMK A01 T01371001  RH  039%=      5-min Rain = 0
KHO1 190110Z 33002KT 14/M00 A2998 RMK A01 T01371001  RH  039%=      5-min Rain = 0
KHO1 190111Z 33002KT 14/M00 A2998 RMK A01 T01371001  RH  039%=      5-min Rain = 0
KHO1 190112Z 34002KT 14/M00 A2998 RMK A01 T01361001  RH  039%=      5-min Rain = 0
KHO1 190113Z 34002KT 14/00 A2998 RMK A01 T013600-0  RH  039%=      5-min Rain = 0
KHO1 190114Z 34003KT 14/00 A2998 RMK A01 T01350001  RH  040%=      5-min Rain = 0
KHO1 190115Z 34003KT 13/00 A2998 RMK A01 T01340003  RH  041%=      5-min Rain = 0
KHO1 190116Z 34004KT 13/00 A2998 RMK A01 T01320003  RH  041%=      5-min Rain = 0
KHO1 190117Z 34003KT 13/00 A2998 RMK A01 T01310002  RH  041%=      5-min Rain = 0
KHO1 190118Z 34003KT 13/00 A2998 RMK A01 T01310002  RH  041%=      5-min Rain = 0
KHO1 190119Z 34003KT 13/M00 A2998 RMK A01 T01321002  RH  040%=      5-min Rain = 0
KHO1 190120Z 34003KT 13/M00 A2998 RMK A01 T01331002  RH  039%=      5-min Rain = 0
KHO1 190121Z 34003KT 13/M00 A2998 RMK A01 T01331003  RH  039%=      5-min Rain = 0
KHO1 190122Z 34003KT 13/M00 A2998 RMK A01 T01331004  RH  039%=      5-min Rain = 0
KHO1 190123Z 34004KT 13/M00 A2998 RMK A01 T01341003  RH  039%=      5-min Rain = 0
KHO1 190124Z 34004KT 13/M00 A2998 RMK A01 T01341001  RH  040%=      5-min Rain = 0
KHO1 190125Z 34004KT 13/00 A2998 RMK A01 T01330002  RH  041%=      5-min Rain = 0
KHO1 190126Z 34004KT 13/00 A2998 RMK A01 T01320004  RH  042%=      5-min Rain = 0
KHO1 190127Z 35004KT 13/00 A2998 RMK A01 T01310004  RH  042%=      5-min Rain = 0
KHO1 190128Z 36004KT 13/01 A2998 RMK A01 T01300006  RH  043%=      5-min Rain = 0
KHO1 190129Z 00005KT 13/01 A2999 RMK A01 T01290007  RH  043%=      5-min Rain = 0
KHO1 190130Z 36004KT 13/01 A2999 RMK A01 T01280005  RH  043%=      5-min Rain = 0
KHO1 190131Z 35004KT 13/01 A2998 RMK A01 T01280005  RH  043%=      5-min Rain = 0
KHO1 190132Z 34003KT 13/00 A2999 RMK A01 T01280003  RH  042%=      5-min Rain = 0
KHO1 190133Z 34004KT 13/M00 A2999 RMK A01 T01281002  RH  041%=      5-min Rain = 0
KHO1 190134Z 35004KT 13/M00 A2999 RMK A01 T01301003  RH  040%=      5-min Rain = 0
KHO1 190135Z 35004KT 13/M00 A2999 RMK A01 T01321003  RH  039%=      5-min Rain = 0
KHO1 190136Z 35004KT 13/M00 A2999 RMK A01 T01331003  RH  039%=      5-min Rain = 0
KHO1 190137Z 34004KT 13/M00 A2999 RMK A01 T01341001  RH  039%=      5-min Rain = 0
KHO1 190138Z 34004KT 13/M00 A2999 RMK A01 T01341002  RH  039%=      5-min Rain = 0
KHO1 190139Z 34004KT 14/M00 A2999 RMK A01 T01351003  RH  039%=      5-min Rain = 0
KHO1 190140Z 35004KT 14/M00 A2999 RMK A01 T01361004  RH  038%=      5-min Rain = 0
KHO1 190141Z 35004KT 14/M00 A2999 RMK A01 T01351002  RH  039%=      5-min Rain = 0
KHO1 190142Z 36004KT 13/00 A2999 RMK A01 T01330000  RH  040%=      5-min Rain = 0
KHO1 190143Z 35005KT 13/00 A2999 RMK A01 T01290002  RH  042%=      5-min Rain = 0
KHO1 190144Z 35006KT 13/00 A2999 RMK A01 T012700-0  RH  042%=      5-min Rain = 0
KHO1 190145Z 35005KT 13/M00 A2999 RMK A01 T01261003  RH  041%=      5-min Rain = 0
KHO1 190146Z 35004KT 13/M00 A2999 RMK A01 T01261002  RH  041%=      5-min Rain = 0
KHO1 190147Z 35005KT 13/M00 A2999 RMK A01 T01261003  RH  041%=      5-min Rain = 0
KHO1 190148Z 36005KT 13/M01 A2999 RMK A01 T01261005  RH  040%=      5-min Rain = 0
KHO1 190149Z 00004KT 13/M01 A30 RMK A01 T01281007  RH  039%=      5-min Rain = 0
KHO1 190150Z 00004KT 13/M01 A30 RMK A01 T01291008  RH  039%=      5-min Rain = 0
KHO1 190151Z 36004KT 13/M01 A30 RMK A01 T01311010  RH  038%=      5-min Rain = 0
KHO1 190152Z 36005KT 13/M01 A30 RMK A01 T01331010  RH  037%=      5-min Rain = 0
KHO1 190153Z 36005KT 14/M01 A30 RMK A01 T01351011  RH  037%=      5-min Rain = 0
KHO1 190154Z 01005KT 14/M01 A30 RMK A01 T01361011  RH  036%=      5-min Rain = 0
KHO1 190155Z 00005KT 14/M01 A30 RMK A01 T01371011  RH  036%=      5-min Rain = 0
KHO1 190156Z 00006KT 14/M01 A30 RMK A01 T01371011  RH  036%=      5-min Rain = 0
KHO1 190157Z 01005KT 14/M01 A30 RMK A01 T01361011  RH  036%=      5-min Rain = 0
KHO1 190158Z 01006KT 14/M01 A30 RMK A01 T01361011  RH  036%=      5-min Rain = 0
KHO1 190159Z 01005KT 14/M01 A30 RMK A01 T01351011  RH  036%=      5-min Rain = 0
KHO1 190200Z 01005KT 14/M01 A30 RMK A01 T01351011  RH  037%=      5-min Rain = 0
KHO1 190201Z 01005KT 13/M01 A30 RMK A01 T01341011  RH  037%=      5-min Rain = 0
KHO1 190202Z 00005KT 13/M01 A30 RMK A01 T01341010  RH  037%=      5-min Rain = 0
KHO1 190203Z 01005KT 13/M01 A30 RMK A01 T01341010  RH  037%=      5-min Rain = 0
KHO1 190204Z 01006KT 13/M01 A30 RMK A01 T01341009  RH  037%=      5-min Rain = 0
KHO1 190205Z 01005KT 13/M01 A30 RMK A01 T01331009  RH  038%=      5-min Rain = 0
KHO1 190206Z 02005KT 13/M01 A30 RMK A01 T01321009  RH  038%=      5-min Rain = 0
KHO1 190207Z 02005KT 13/M01 A30 RMK A01 T01311008  RH  038%=      5-min Rain = 0
KHO1 190208Z 02005KT 13/M01 A30 RMK A01 T01301009  RH  038%=      5-min Rain = 0
KHO1 190209Z 03005KT 13/M01 A30 RMK A01 T01291009  RH  038%=      5-min Rain = 0
KHO1 190210Z 03006KT 13/M01 A30 RMK A01 T01291010  RH  038%=      5-min Rain = 0
KHO1 190211Z 03006KT 13/M01 A30 RMK A01 T01281010  RH  039%=      5-min Rain = 0
KHO1 190212Z 03007KT 13/M01 A30 RMK A01 T01281010  RH  039%=      5-min Rain = 0
KHO1 190213Z 02006KT 13/M01 A30 RMK A01 T01281010  RH  039%=      5-min Rain = 0
KHO1 190214Z 02006KT 13/M01 A30 RMK A01 T01291010  RH  038%=      5-min Rain = 0
KHO1 190215Z 02005KT 13/M01 A30 RMK A01 T01281009  RH  039%=      5-min Rain = 0
KHO1 190216Z 02005KT 13/M01 A30 RMK A01 T01281010  RH  039%=      5-min Rain = 0
KHO1 190217Z 03005KT 13/M01 A30 RMK A01 T01281010  RH  038%=      5-min Rain = 0
KHO1 190218Z 03005KT 13/M01 A30 RMK A01 T01291011  RH  038%=      5-min Rain = 0
KHO1 190219Z 03005KT 13/M01 A30 RMK A01 T01301012  RH  038%=      5-min Rain = 0
KHO1 190220Z 03005KT 13/M01 A30 RMK A01 T01291012  RH  038%=      5-min Rain = 0
KHO1 190221Z 03006KT 13/M01 A30 RMK A01 T01291011  RH  038%=      5-min Rain = 0
KHO1 190222Z 03005KT 13/M01 A30 RMK A01 T01291011  RH  038%=      5-min Rain = 0
KHO1 190223Z 03005KT 13/M01 A30 RMK A01 T01291010  RH  038%=      5-min Rain = 0
KHO1 190224Z 03005KT 13/M01 A30 RMK A01 T01281010  RH  038%=      5-min Rain = 0
KHO1 190225Z 03005KT 13/M01 A30 RMK A01 T01281010  RH  038%=      5-min Rain = 0
KHO1 190226Z 03005KT 13/M01 A30 RMK A01 T01271010  RH  038%=      5-min Rain = 0
KHO1 190227Z 03005KT 13/M01 A30 RMK A01 T01271011  RH  039%=      5-min Rain = 0
KHO1 190228Z 03005KT 13/M01 A30 RMK A01 T01261011  RH  039%=      5-min Rain = 0
KHO1 190229Z 03005KT 13/M01 A30 RMK A01 T01261011  RH  039%=      5-min Rain = 0
KHO1 190230Z 03005KT 13/M01 A30 RMK A01 T01261011  RH  039%=      5-min Rain = 0
KHO1 190231Z 03005KT 13/M01 A30 RMK A01 T01271011  RH  038%=      5-min Rain = 0
KHO1 190232Z 03005KT 13/M01 A3001 RMK A01 T01271011  RH  038%=      5-min Rain = 0
KHO1 190233Z 03005KT 13/M01 A3001 RMK A01 T01271011  RH  038%=      5-min Rain = 0
KHO1 190234Z 04004KT 13/M01 A3001 RMK A01 T01271011  RH  038%=      5-min Rain = 0
KHO1 190235Z 03004KT 13/M01 A3001 RMK A01 T01271011  RH  039%=      5-min Rain = 0
KHO1 190236Z 03004KT 13/M01 A3001 RMK A01 T01261011  RH  039%=      5-min Rain = 0
KHO1 190237Z 03004KT 13/M01 A3001 RMK A01 T01261011  RH  039%=      5-min Rain = 0
KHO1 190238Z 04004KT 13/M01 A3001 RMK A01 T01251011  RH  039%=      5-min Rain = 0
KHO1 190239Z 04004KT 13/M01 A3001 RMK A01 T01251011  RH  039%=      5-min Rain = 0
KHO1 190240Z 04004KT 13/M01 A3001 RMK A01 T01251011  RH  039%=      5-min Rain = 0
KHO1 190241Z 04005KT 12/M01 A3001 RMK A01 T01241011  RH  039%=      5-min Rain = 0
KHO1 190242Z 04005KT 12/M01 A3001 RMK A01 T01241011  RH  039%=      5-min Rain = 0
KHO1 190243Z 05004KT 12/M01 A3001 RMK A01 T01231011  RH  040%=      5-min Rain = 0
KHO1 190244Z 05004KT 12/M01 A3001 RMK A01 T01221011  RH  040%=      5-min Rain = 0
KHO1 190245Z 05004KT 12/M01 A3001 RMK A01 T01211010  RH  040%=      5-min Rain = 0
KHO1 190246Z 05004KT 12/M01 A3001 RMK A01 T01201011  RH  040%=      5-min Rain = 0
KHO1 190247Z 05004KT 12/M01 A3001 RMK A01 T01201011  RH  040%=      5-min Rain = 0
KHO1 190248Z 05004KT 12/M01 A3001 RMK A01 T01201011  RH  040%=      5-min Rain = 0
KHO1 190249Z 06004KT 12/M01 A3001 RMK A01 T01201012  RH  040%=      5-min Rain = 0
KHO1 190250Z 06003KT 12/M01 A3001 RMK A01 T01201013  RH  040%=      5-min Rain = 0
KHO1 190251Z 07002KT 12/M01 A3001 RMK A01 T01191013  RH  040%=      5-min Rain = 0
KHO1 190252Z 06003KT 12/M01 A3001 RMK A01 T01191013  RH  040%=      5-min Rain = 0
KHO1 190253Z 07003KT 12/M01 A3001 RMK A01 T01191014  RH  040%=      5-min Rain = 0
KHO1 190254Z 06003KT 12/M01 A3002 RMK A01 T01191014  RH  040%=      5-min Rain = 0
KHO1 190255Z 07003KT 12/M02 A3002 RMK A01 T01191015  RH  039%=      5-min Rain = 0
KHO1 190256Z 07003KT 12/M02 A3002 RMK A01 T01191015  RH  039%=      5-min Rain = 0
KHO1 190257Z 07003KT 12/M02 A3002 RMK A01 T01201015  RH  039%=      5-min Rain = 0
KHO1 190258Z 07004KT 12/M02 A3002 RMK A01 T01201015  RH  039%=      5-min Rain = 0
KHO1 190259Z 08003KT 12/M02 A3002 RMK A01 T01201015  RH  039%=      5-min Rain = 0
KHO1 190300Z 08004KT 12/M02 A3002 RMK A01 T01191015  RH  039%=      5-min Rain = 0
KHO1 190301Z 08004KT 12/M02 A3002 RMK A01 T01191016  RH  039%=      5-min Rain = 0
KHO1 190302Z 07004KT 12/M02 A3002 RMK A01 T01191016  RH  039%=      5-min Rain = 0
KHO1 190303Z 07004KT 12/M02 A3002 RMK A01 T01191017  RH  039%=      5-min Rain = 0
KHO1 190304Z 08004KT 12/M02 A3002 RMK A01 T01201017  RH  039%=      5-min Rain = 0
KHO1 190305Z 08004KT 12/M02 A3002 RMK A01 T01201017  RH  038%=      5-min Rain = 0
KHO1 190306Z 08004KT 12/M02 A3002 RMK A01 T01211017  RH  038%=      5-min Rain = 0
KHO1 190307Z 07004KT 12/M02 A3002 RMK A01 T01211018  RH  038%=      5-min Rain = 0
KHO1 190308Z 07004KT 12/M02 A3002 RMK A01 T01221019  RH  038%=      5-min Rain = 0
KHO1 190309Z 07004KT 12/M02 A3002 RMK A01 T01241019  RH  037%=      5-min Rain = 0
KHO1 190310Z 07005KT 13/M02 A3002 RMK A01 T01251020  RH  037%=      5-min Rain = 0
KHO1 190311Z 07005KT 13/M02 A3002 RMK A01 T01261020  RH  036%=      5-min Rain = 0
KHO1 190312Z 07004KT 13/M02 A3002 RMK A01 T01271020  RH  036%=      5-min Rain = 0
KHO1 190313Z 07005KT 13/M02 A3002 RMK A01 T01271020  RH  036%=      5-min Rain = 0
KHO1 190314Z 07005KT 13/M02 A3002 RMK A01 T01271021  RH  036%=      5-min Rain = 0
KHO1 190315Z 07005KT 13/M02 A3002 RMK A01 T01271021  RH  036%=      5-min Rain = 0
KHO1 190316Z 07005KT 13/M02 A3002 RMK A01 T01281022  RH  035%=      5-min Rain = 0
KHO1 190317Z 07005KT 13/M02 A3002 RMK A01 T01281022  RH  035%=      5-min Rain = 0
KHO1 190318Z 07005KT 13/M02 A3002 RMK A01 T01281023  RH  035%=      5-min Rain = 0
KHO1 190319Z 08005KT 13/M02 A3002 RMK A01 T01291024  RH  035%=      5-min Rain = 0
KHO1 190320Z 08006KT 13/M02 A3002 RMK A01 T01301024  RH  034%=      5-min Rain = 0
KHO1 190321Z 08006KT 13/M02 A3002 RMK A01 T01301024  RH  034%=      5-min Rain = 0
KHO1 190322Z 07005KT 13/M02 A3002 RMK A01 T01311024  RH  034%=      5-min Rain = 0
KHO1 190323Z 08005KT 13/M02 A3002 RMK A01 T01321024  RH  034%=      5-min Rain = 0
KHO1 190324Z 08006KT 13/M02 A3002 RMK A01 T01321024  RH  034%=      5-min Rain = 0
KHO1 190325Z 07006KT 13/M02 A3001 RMK A01 T01331024  RH  034%=      5-min Rain = 0
KHO1 190326Z 07005KT 13/M03 A3001 RMK A01 T01321025  RH  034%=      5-min Rain = 0
KHO1 190327Z 07005KT 13/M02 A3001 RMK A01 T01321024  RH  034%=      5-min Rain = 0
KHO1 190328Z 07005KT 13/M02 A3001 RMK A01 T01321024  RH  034%=      5-min Rain = 0
KHO1 190329Z 07005KT 13/M02 A3001 RMK A01 T01311024  RH  034%=      5-min Rain = 0
KHO1 190330Z 07005KT 13/M03 A3001 RMK A01 T01311025  RH  034%=      5-min Rain = 0
KHO1 190331Z 07004KT 13/M02 A3001 RMK A01 T01301024  RH  034%=      5-min Rain = 0
KHO1 190332Z 06005KT 13/M03 A3001 RMK A01 T01301025  RH  034%=      5-min Rain = 0
KHO1 190333Z 06004KT 13/M02 A3001 RMK A01 T01301024  RH  034%=      5-min Rain = 0
KHO1 190334Z 06004KT 13/M02 A3001 RMK A01 T01291024  RH  034%=      5-min Rain = 0
KHO1 190335Z 07004KT 13/M02 A3001 RMK A01 T01291024  RH  034%=      5-min Rain = 0
KHO1 190336Z 07004KT 13/M02 A3001 RMK A01 T01281024  RH  035%=      5-min Rain = 0
KHO1 190337Z 06004KT 13/M02 A3001 RMK A01 T01271024  RH  035%=      5-min Rain = 0
KHO1 190338Z 06004KT 13/M02 A3001 RMK A01 T01271024  RH  035%=      5-min Rain = 0
KHO1 190339Z 06004KT 13/M02 A3001 RMK A01 T01271023  RH  035%=      5-min Rain = 0
KHO1 190340Z 06004KT 13/M02 A3001 RMK A01 T01261023  RH  035%=      5-min Rain = 0
KHO1 190341Z 06004KT 12/M02 A3001 RMK A01 T01241020  RH  037%=      5-min Rain = 0
KHO1 190342Z 06004KT 12/M02 A3001 RMK A01 T01211020  RH  038%=      5-min Rain = 0
KHO1 190343Z 06004KT 12/M02 A3001 RMK A01 T01191020  RH  038%=      5-min Rain = 0
KHO1 190344Z 06004KT 12/M02 A3001 RMK A01 T01171020  RH  038%=      5-min Rain = 0
KHO1 190345Z 06004KT 12/M02 A3001 RMK A01 T01171021  RH  038%=      5-min Rain = 0
KHO1 190346Z 06004KT 12/M02 A3001 RMK A01 T01181021  RH  038%=      5-min Rain = 0
KHO1 190347Z 06004KT 12/M02 A3001 RMK A01 T01181021  RH  038%=      5-min Rain = 0
KHO1 190348Z 05005KT 12/M02 A3001 RMK A01 T01191021  RH  038%=      5-min Rain = 0
KHO1 190349Z 06004KT 12/M02 A3001 RMK A01 T01201022  RH  037%=      5-min Rain = 0
KHO1 190350Z 06004KT 12/M02 A3001 RMK A01 T01201022  RH  037%=      5-min Rain = 0
KHO1 190351Z 06004KT 12/M02 A3001 RMK A01 T01211022  RH  037%=      5-min Rain = 0
KHO1 190352Z 06005KT 12/M02 A3001 RMK A01 T01211022  RH  037%=      5-min Rain = 0
KHO1 190353Z 06004KT 12/M02 A3001 RMK A01 T01211021  RH  037%=      5-min Rain = 0
KHO1 190354Z 05004KT 12/M02 A3001 RMK A01 T01201021  RH  037%=      5-min Rain = 0
KHO1 190355Z 06005KT 12/M02 A3001 RMK A01 T01191021  RH  038%=      5-min Rain = 0
KHO1 190356Z 06004KT 12/M02 A3001 RMK A01 T01181021  RH  038%=      5-min Rain = 0
KHO1 190357Z 06004KT 12/M02 A3001 RMK A01 T01181021  RH  038%=      5-min Rain = 0
KHO1 190358Z 06004KT 12/M02 A3001 RMK A01 T01191021  RH  038%=      5-min Rain = 0
KHO1 190359Z 06003KT 12/M02 A3001 RMK A01 T01181021  RH  038%=      5-min Rain = 0
KHO1 190400Z 07003KT 12/M02 A3002 RMK A01 T01181021  RH  038%=      5-min Rain = 0
KHO1 190401Z 07003KT 12/M02 A3002 RMK A01 T01181021  RH  038%=      5-min Rain = 0
KHO1 190402Z 07003KT 12/M02 A3002 RMK A01 T01171021  RH  038%=      5-min Rain = 0
KHO1 190403Z 08003KT 12/M02 A3002 RMK A01 T01161020  RH  039%=      5-min Rain = 0
KHO1 190404Z 08003KT 12/M02 A3002 RMK A01 T01151020  RH  039%=      5-min Rain = 0
KHO1 190405Z 08003KT 11/M02 A3001 RMK A01 T01141020  RH  039%=      5-min Rain = 0
KHO1 190406Z 08003KT 11/M02 A3001 RMK A01 T01131020  RH  039%=      5-min Rain = 0
KHO1 190407Z 08003KT 11/M02 A3001 RMK A01 T01121020  RH  040%=      5-min Rain = 0
KHO1 190408Z 08003KT 11/M02 A3001 RMK A01 T01121020  RH  040%=      5-min Rain = 0
KHO1 190409Z 07003KT 11/M02 A3001 RMK A01 T01121019  RH  040%=      5-min Rain = 0
KHO1 190410Z 07003KT 11/M02 A3001 RMK A01 T01121019  RH  040%=      5-min Rain = 0
KHO1 190411Z 07003KT 11/M02 A3001 RMK A01 T01121020  RH  040%=      5-min Rain = 0
KHO1 190412Z 07003KT 11/M02 A3001 RMK A01 T01121020  RH  040%=      5-min Rain = 0
KHO1 190413Z 08003KT 11/M02 A3001 RMK A01 T01131020  RH  040%=      5-min Rain = 0
KHO1 190414Z 07003KT 11/M02 A3001 RMK A01 T01131020  RH  040%=      5-min Rain = 0
KHO1 190415Z 07003KT 11/M02 A3001 RMK A01 T01131020  RH  040%=      5-min Rain = 0
KHO1 190416Z 08003KT 11/M02 A3001 RMK A01 T01131020  RH  039%=      5-min Rain = 0
KHO1 190417Z 08004KT 11/M02 A3001 RMK A01 T01131020  RH  039%=      5-min Rain = 0
KHO1 190418Z 07004KT 11/M02 A3001 RMK A01 T01141020  RH  039%=      5-min Rain = 0
KHO1 190419Z 07003KT 11/M02 A3001 RMK A01 T01131020  RH  039%=      5-min Rain = 0
KHO1 190420Z 08004KT 11/M02 A3001 RMK A01 T01131020  RH  039%=      5-min Rain = 0
KHO1 190421Z 08004KT 11/M02 A3001 RMK A01 T01131020  RH  040%=      5-min Rain = 0
KHO1 190422Z 07004KT 11/M02 A3001 RMK A01 T01131019  RH  040%=      5-min Rain = 0
KHO1 190423Z 08003KT 11/M02 A3001 RMK A01 T01131019  RH  040%=      5-min Rain = 0
KHO1 190424Z 08004KT 11/M02 A3001 RMK A01 T01121019  RH  040%=      5-min Rain = 0
KHO1 190425Z 08004KT 11/M02 A3001 RMK A01 T01121020  RH  040%=      5-min Rain = 0
KHO1 190426Z 07004KT 11/M02 A3001 RMK A01 T01121020  RH  040%=      5-min Rain = 0
KHO1 190427Z 07004KT 11/M02 A3001 RMK A01 T01131020  RH  040%=      5-min Rain = 0
KHO1 190428Z 07004KT 11/M02 A3001 RMK A01 T01131020  RH  039%=      5-min Rain = 0
KHO1 190429Z 07003KT 11/M02 A3001 RMK A01 T01141020  RH  039%=      5-min Rain = 0
KHO1 190430Z 07004KT 12/M02 A3001 RMK A01 T01151020  RH  039%=      5-min Rain = 0
KHO1 190431Z 07004KT 12/M02 A3001 RMK A01 T01151020  RH  039%=      5-min Rain = 0
KHO1 190432Z 07004KT 12/M02 A3001 RMK A01 T01151020  RH  039%=      5-min Rain = 0
KHO1 190433Z 06004KT 12/M02 A3001 RMK A01 T01151020  RH  039%=      5-min Rain = 0
KHO1 190434Z 06004KT 11/M02 A3001 RMK A01 T01141019  RH  039%=      5-min Rain = 0
KHO1 190435Z 07004KT 11/M02 A3001 RMK A01 T01121018  RH  040%=      5-min Rain = 0
KHO1 190436Z 06004KT 11/M02 A3001 RMK A01 T01101019  RH  041%=      5-min Rain = 0
KHO1 190437Z 06004KT 11/M02 A3001 RMK A01 T01091019  RH  041%=      5-min Rain = 0
KHO1 190438Z 07003KT 11/M02 A3001 RMK A01 T01091019  RH  041%=      5-min Rain = 0
KHO1 190439Z 07003KT 11/M02 A3001 RMK A01 T01081019  RH  041%=      5-min Rain = 0
KHO1 190440Z 07003KT 11/M02 A3001 RMK A01 T01081019  RH  041%=      5-min Rain = 0
KHO1 190441Z 08002KT 11/M02 A3001 RMK A01 T01081019  RH  041%=      5-min Rain = 0
KHO1 190442Z 09003KT 11/M02 A3001 RMK A01 T01071020  RH  041%=      5-min Rain = 0
KHO1 190443Z 09002KT 11/M02 A3001 RMK A01 T01071019  RH  041%=      5-min Rain = 0
KHO1 190444Z 10003KT 11/M02 A3001 RMK A01 T01061019  RH  041%=      5-min Rain = 0
KHO1 190445Z 10003KT 11/M02 A3001 RMK A01 T01061019  RH  042%=      5-min Rain = 0
KHO1 190446Z 11003KT 11/M02 A3001 RMK A01 T01061019  RH  042%=      5-min Rain = 0
KHO1 190447Z 10004KT 11/M02 A3001 RMK A01 T01071019  RH  041%=      5-min Rain = 0
KHO1 190448Z 11004KT 11/M02 A3001 RMK A01 T01071020  RH  041%=      5-min Rain = 0
KHO1 190449Z 11004KT 11/M02 A3001 RMK A01 T01071020  RH  041%=      5-min Rain = 0
KHO1 190450Z 11004KT 11/M02 A3001 RMK A01 T01061020  RH  041%=      5-min Rain = 0
KHO1 190451Z 11005KT 11/M02 A3001 RMK A01 T01061020  RH  041%=      5-min Rain = 0
KHO1 190452Z 12005KT 11/M02 A3001 RMK A01 T01071019  RH  041%=      5-min Rain = 0
KHO1 190453Z 12005KT 11/M02 A3001 RMK A01 T01091019  RH  041%=      5-min Rain = 0
KHO1 190454Z 12005KT 11/M02 A3001 RMK A01 T01091020  RH  041%=      5-min Rain = 0
KHO1 190455Z 12005KT 11/M02 A3001 RMK A01 T01081020  RH  041%=      5-min Rain = 0
KHO1 190456Z 14005KT 11/M02 A3001 RMK A01 T01071020  RH  041%=      5-min Rain = 0
KHO1 190457Z 15005KT 10/M02 A3001 RMK A01 T01031019  RH  042%=      5-min Rain = 0
KHO1 190458Z 15004KT 10/M02 A3001 RMK A01 T01011018  RH  043%=      5-min Rain = 0
KHO1 190459Z 15004KT 10/M02 A3001 RMK A01 T01011017  RH  044%=      5-min Rain = 0
KHO1 190500Z 17003KT 10/M02 A3001 RMK A01 T01021015  RH  044%=      5-min Rain = 0
KHO1 190501Z 17004KT 10/M02 A3001 RMK A01 T01001015  RH  045%=      5-min Rain = 0
KHO1 190502Z 17005KT 10/M01 A3002 RMK A01 T00981014  RH  046%=      5-min Rain = 0
KHO1 190503Z 17005KT 10/M01 A3002 RMK A01 T00961014  RH  046%=      5-min Rain = 0
KHO1 190504Z 16004KT 09/M01 A3002 RMK A01 T00941014  RH  047%=      5-min Rain = 0
KHO1 190505Z 17004KT 09/M01 A3002 RMK A01 T00941013  RH  047%=      5-min Rain = 0
KHO1 190506Z 18004KT 09/M01 A3002 RMK A01 T00941013  RH  047%=      5-min Rain = 0
KHO1 190507Z 18004KT 09/M01 A3002 RMK A01 T00941012  RH  047%=      5-min Rain = 0
KHO1 190508Z 17004KT 09/M01 A3002 RMK A01 T00931012  RH  048%=      5-min Rain = 0
KHO1 190509Z 16003KT 09/M01 A3002 RMK A01 T00931012  RH  048%=      5-min Rain = 0
KHO1 190510Z 16003KT 09/M01 A3002 RMK A01 T00941012  RH  048%=      5-min Rain = 0
KHO1 190511Z 15003KT 10/M01 A3002 RMK A01 T00951011  RH  047%=      5-min Rain = 0
KHO1 190512Z 14002KT 10/M01 A3002 RMK A01 T00951012  RH  047%=      5-min Rain = 0
KHO1 190513Z 14002KT 10/M01 A3002 RMK A01 T00951012  RH  047%=      5-min Rain = 0
KHO1 190514Z 14003KT 10/M01 A3002 RMK A01 T00951012  RH  047%=      5-min Rain = 0
KHO1 190515Z 15002KT 10/M01 A3002 RMK A01 T00951012  RH  047%=      5-min Rain = 0
KHO1 190516Z 16002KT 10/M01 A3002 RMK A01 T00971012  RH  047%=      5-min Rain = 0
KHO1 190517Z 16002KT 10/M01 A3002 RMK A01 T00961012  RH  047%=      5-min Rain = 0
KHO1 190518Z 17002KT 09/M01 A3002 RMK A01 T00941012  RH  047%=      5-min Rain = 0
KHO1 190519Z 17001KT 09/M01 A3002 RMK A01 T00931013  RH  047%=      5-min Rain = 0
KHO1 190520Z 17001KT 09/M01 A3002 RMK A01 T00941013  RH  047%=      5-min Rain = 0
KHO1 190521Z 14001KT 10/M01 A3002 RMK A01 T00951013  RH  047%=      5-min Rain = 0
KHO1 190522Z 14001KT 10/M01 A3002 RMK A01 T00961013  RH  047%=      5-min Rain = 0
KHO1 190523Z 13002KT 10/M01 A3002 RMK A01 T00961012  RH  047%=      5-min Rain = 0
KHO1 190524Z 12001KT 10/M01 A3002 RMK A01 T00951011  RH  047%=      5-min Rain = 0
KHO1 190525Z 12001KT 10/M01 A3002 RMK A01 T00951009  RH  048%=      5-min Rain = 0
KHO1 190526Z 11000KT 09/M01 A3002 RMK A01 T00931008  RH  049%=      5-min Rain = 0
KHO1 190527Z 07000KT 09/M01 A3002 RMK A01 T00891008  RH  050%=      5-min Rain = 0
KHO1 190528Z 07001KT 09/M01 A3002 RMK A01 T00861009  RH  051%=      5-min Rain = 0
KHO1 190529Z 08001KT 08/M01 A3002 RMK A01 T00841010  RH  052%=      5-min Rain = 0
KHO1 190530Z 09001KT 08/M01 A3002 RMK A01 T00831011  RH  051%=      5-min Rain = 0
KHO1 190531Z 09001KT 08/M01 A3002 RMK A01 T00841011  RH  051%=      5-min Rain = 0
KHO1 190532Z 09001KT 09/M01 A3002 RMK A01 T00851011  RH  051%=      5-min Rain = 0
KHO1 190533Z 09001KT 09/M01 A3002 RMK A01 T00851009  RH  052%=      5-min Rain = 0
KHO1 190534Z 07001KT 09/M01 A3002 RMK A01 T00851009  RH  052%=      5-min Rain = 0
KHO1 190535Z 07001KT 09/M01 A3002 RMK A01 T00851008  RH  052%=      5-min Rain = 0
KHO1 190536Z 07001KT 08/M01 A3002 RMK A01 T00841008  RH  052%=      5-min Rain = 0
KHO1 190537Z 07001KT 08/M01 A3002 RMK A01 T00831008  RH  053%=      5-min Rain = 0
KHO1 190538Z 07000KT 08/M01 A3002 RMK A01 T00831007  RH  053%=      5-min Rain = 0
KHO1 190539Z 07000KT 08/M01 A3002 RMK A01 T00821006  RH  054%=      5-min Rain = 0
KHO1 190540Z 08000KT 08/M01 A3002 RMK A01 T00811006  RH  054%=      5-min Rain = 0
KHO1 190541Z 08001KT 08/M01 A3002 RMK A01 T00801006  RH  055%=      5-min Rain = 0
KHO1 190542Z 07001KT 08/M01 A3002 RMK A01 T00781006  RH  055%=      5-min Rain = 0
KHO1 190543Z 07001KT 08/M01 A3002 RMK A01 T00771005  RH  056%=      5-min Rain = 0
KHO1 190544Z 06001KT 08/M01 A3002 RMK A01 T00751005  RH  057%=      5-min Rain = 0
KHO1 190545Z 06001KT 07/M01 A3002 RMK A01 T00741005  RH  057%=      5-min Rain = 0
KHO1 190546Z 07001KT 07/M00 A3002 RMK A01 T00731004  RH  058%=      5-min Rain = 0
KHO1 190547Z 06001KT 07/M00 A3002 RMK A01 T00721004  RH  058%=      5-min Rain = 0
KHO1 190548Z 07001KT 07/M00 A3002 RMK A01 T00711004  RH  059%=      5-min Rain = 0
KHO1 190549Z 08001KT 07/M00 A3002 RMK A01 T00701003  RH  059%=      5-min Rain = 0
KHO1 190550Z 07001KT 07/M00 A3002 RMK A01 T00701003  RH  060%=      5-min Rain = 0
KHO1 190551Z 05001KT 07/M00 A3002 RMK A01 T00711002  RH  060%=      5-min Rain = 0
KHO1 190552Z 05002KT 07/M00 A3002 RMK A01 T00711002  RH  060%=      5-min Rain = 0
KHO1 190553Z 05002KT 07/M00 A3002 RMK A01 T00721002  RH  059%=      5-min Rain = 0
KHO1 190554Z 05001KT 07/M00 A3002 RMK A01 T00721002  RH  059%=      5-min Rain = 0
KHO1 190555Z 05001KT 07/M00 A3002 RMK A01 T00731002  RH  059%=      5-min Rain = 0
KHO1 190556Z 10001KT 07/M00 A3002 RMK A01 T00731002  RH  059%=      5-min Rain = 0
KHO1 190557Z 10001KT 07/M00 A3002 RMK A01 T00741002  RH  059%=      5-min Rain = 0
KHO1 190558Z 10001KT 07/M00 A3002 RMK A01 T00741003  RH  058%=      5-min Rain = 0
KHO1 190559Z 10001KT 07/M00 A3002 RMK A01 T00741003  RH  058%=      5-min Rain = 0

Page generated in 0.0773 seconds.